GFSNE_con_3kmhel_036.txt.gz
Helicity
122 121 117 122 120 121 124 126 122 110 120 124 111 167 186 174 138 123 118 72 71 54 54 59 61 50 67 70 77 79 73 78 102 131 112 90 62 106
133 125 124 128 123 126 130 142 154 157 216 193 185 199 183 175 132 84 78 75 48 38 38 27 24 41 42 35 27 32 38 42 56 56 61 70 68 69
127 123 124 127 127 135 144 163 176 188 216 214 203 181 166 134 110 110 113 98 117 38 31 32 31 24 11 -16 -16 -10 9 21 32 35 47 57 45 36
125 123 119 136 129 140 168 174 189 193 218 190 177 166 138 119 111 74 99 103 89 52 18 23 14 4 17 25 25 23 28 22 19 20 25 44 61 48
109 120 128 138 141 162 162 179 196 204 187 206 197 155 148 132 89 110 70 72 71 35 26 18 21 27 25 21 23 28 16 26 26 32 30 29 32 38
116 117 131 137 138 145 159 175 187 205 163 169 171 175 167 122 109 92 74 64 78 70 87 51 46 40 48 50 36 25 20 48 52 53 41 22 21 16
114 120 125 132 120 137 191 188 189 183 164 163 190 201 120 109 80 74 74 82 82 65 119 105 133 127 157 90 75 50 69 77 65 55 51 46 13 20
113 117 123 131 150 145 156 139 114 133 141 158 172 148 97 84 76 68 93 66 -12 78 98 149 138 149 180 166 99 74 27 24 43 55 69 76 72 49
113 121 145 167 162 170 130 72 76 70 76 112 126 96 82 69 87 96 49 -49 81 136 15 147 153 178 176 214 183 59 39 81 83 73 66 60 64 63
123 130 150 170 153 120 102 123 124 93 87 106 82 71 78 88 86 59 -38 -48 142 173 93 140 150 156 210 274 128 65 121 102 84 77 60 43 35 39
136 126 138 102 83 60 117 123 104 84 72 46 32 22 32 16 49 81 54 31 49 117 120 77 117 145 162 241 131 118 121 100 84 87 69 34 29 23
134 111 90 101 86 63 104 102 102 69 60 52 49 44 41 46 33 80 77 51 59 79 113 79 98 73 51 127 169 198 150 104 77 68 24 11 21 12
121 113 114 91 57 60 56 78 80 60 36 42 53 55 52 54 63 77 76 91 78 135 162 62 109 101 93 74 139 181 161 169 162 148 60 78 70 46
123 111 94 53 52 42 61 55 37 31 57 61 56 63 72 73 77 80 75 92 124 154 149 95 151 112 107 115 136 150 157 185 192 188 201 229 193 128
114 78 41 55 50 57 51 33 32 60 60 65 77 84 84 85 85 86 83 87 94 121 138 114 86 -16 22 118 163 143 76 213 151 171 189 175 162 200
101 98 76 64 50 48 48 48 60 61 63 76 80 79 84 84 90 82 84 83 88 120 98 91 -19 -16 31 45 72 105 174 194 136 164 166 168 150 105
95 91 84 65 59 52 52 56 63 68 68 62 74 81 74 66 81 74 85 85 88 80 81 79 5 6 22 24 76 113 146 140 104 123 131 129 96 87
88 82 67 61 51 50 52 56 68 65 75 85 98 103 93 83 78 74 83 97 102 70 42 31 33 19 7 31 -18 100 138 133 108 118 88 84 62 78
81 66 59 55 55 57 62 77 99 104 100 105 108 108 115 115 63 110 103 108 98 71 12 7 10 -14 5 50 77 91 84 112 102 102 62 71 107 107
59 55 57 59 59 63 78 99 121 120 115 116 120 118 124 112 112 110 102 72 82 65 29 11 -3 -14 -3 53 100 173 98 83 63 89 125 94 128 111
47 59 62 64 69 84 102 119 122 140 125 128 132 137 133 112 139 125 110 42 12 12 17 34 35 38 -9 15 77 109 86 26 35 79 135 105 72 74
46 58 66 79 98 114 121 122 132 141 134 131 137 142 147 139 139 123 113 41 40 28 28 51 39 19 -10 22 72 82 100 73 33 72 74 87 109 115
51 70 93 113 126 125 126 130 147 160 150 149 158 155 158 165 159 125 54 29 29 29 12 49 34 9 14 44 68 71 73 58 50 73 71 75 116 123

GFSNE_con_3kmhel_039.txt.gz
Helicity
116 117 119 126 145 151 160 158 161 163 152 146 138 211 224 239 202 214 189 104 54 56 62 61 50 50 61 61 50 52 51 42 53 41 37 35 27 53
120 118 130 145 160 160 150 156 176 186 218 209 195 207 198 227 204 164 131 60 88 43 44 34 41 57 46 29 28 23 18 18 19 30 30 29 30 16
113 121 137 149 149 148 156 169 186 197 217 220 211 200 209 198 163 139 130 123 113 61 27 25 33 31 18 24 18 -6 5 13 17 21 29 39 35 45
122 143 136 140 145 142 158 171 188 186 204 192 206 215 178 146 139 125 119 143 106 66 28 15 21 16 18 -13 1 29 34 13 25 25 30 26 34 33
133 134 132 137 146 160 173 186 196 206 219 232 229 195 178 153 135 127 115 113 126 65 22 23 24 6 -4 34 29 14 30 32 24 28 28 27 28 31
123 123 120 133 143 170 206 204 205 224 223 234 216 188 166 143 114 124 119 114 94 89 62 76 20 15 45 50 19 -4 20 33 37 13 4 2 9 7
114 114 125 152 161 151 171 180 191 215 214 201 191 170 154 120 111 112 105 86 91 92 110 131 101 151 147 96 57 35 46 24 1 -12 -6 6 15 23
123 137 153 151 150 168 147 149 159 186 166 159 158 152 121 117 110 98 78 75 109 91 87 59 117 161 170 153 71 36 2 -17 2 33 46 71 74 75
133 142 147 160 179 194 183 149 157 79 55 93 114 136 121 107 100 102 96 93 103 116 59 65 129 143 143 152 138 90 25 7 35 45 41 51 50 51
124 126 148 153 166 163 183 160 132 110 91 115 123 125 111 100 122 124 100 89 126 123 86 58 111 112 122 188 217 70 34 61 36 20 18 18 25 40
124 150 155 167 134 119 141 138 117 107 82 50 62 32 23 17 41 101 114 113 96 112 112 91 96 110 113 185 214 85 104 84 35 16 7 2 -12 -19
165 163 129 143 118 105 120 123 110 94 83 70 69 59 57 57 32 76 103 119 124 96 131 117 108 68 67 165 174 177 154 96 28 13 17 1 -14 13
156 155 153 108 96 63 70 94 89 73 57 71 81 85 80 82 83 78 77 112 131 166 182 98 128 96 133 131 149 185 143 122 127 94 63 40 33 42
139 139 127 67 48 48 55 40 31 28 77 84 86 91 88 90 89 87 80 104 155 198 182 133 198 165 110 79 108 141 139 112 137 139 133 108 110 67
128 89 41 34 31 50 34 24 34 79 83 86 95 101 102 112 102 96 90 95 92 130 172 163 186 158 150 45 62 136 66 94 111 127 191 137 127 114
93 89 57 27 36 43 49 61 75 78 78 93 108 121 131 122 117 112 104 94 96 135 123 131 127 102 105 31 16 81 51 64 162 198 40 168 132 136
73 82 65 60 62 63 66 67 74 86 96 109 122 135 135 126 128 118 131 143 133 67 73 127 103 112 97 58 39 50 29 93 122 34 35 83 163 126
81 63 58 60 65 68 72 80 101 91 117 123 130 138 136 136 129 131 128 127 120 129 109 126 112 53 54 47 -2 -47 38 50 72 72 71 70 143 155
63 57 63 68 76 83 91 104 121 130 121 143 140 145 146 146 97 136 123 118 126 130 131 90 7 8 43 89 141 22 -18 55 74 117 62 75 123 144
52 60 66 75 83 94 111 131 141 140 138 138 144 146 148 150 150 150 152 142 128 122 109 71 2 15 25 38 131 220 110 60 70 113 114 86 110 136
51 59 72 86 105 124 141 146 147 155 138 143 150 157 161 155 158 163 171 27 -1 12 52 65 79 62 32 46 73 116 118 82 35 49 81 68 101 121
47 65 96 115 132 147 151 155 162 166 162 159 162 161 170 176 164 148 20 26 51 71 98 75 62 58 37 18 81 104 124 104 69 79 68 61 38 51
56 93 121 135 149 157 156 167 179 185 189 193 199 200 216 197 179 154 100 32 65 55 21 65 72 35 26 51 66 104 96 66 82 122 108 37 33 67

GFSNE_con_3kmhel_042.txt.gz
Helicity
93 101 110 119 158 174 183 190 199 188 156 147 134 139 131 141 140 156 164 126 99 89 109 111 98 90 100 103 83 61 52 46 39 29 11 17 12 12
105 121 130 152 170 176 167 177 193 211 225 230 179 165 148 147 149 142 146 91 84 78 74 65 64 55 72 54 32 19 20 23 25 30 23 26 23 20
122 126 134 159 155 156 174 175 184 201 214 206 197 177 197 182 159 149 142 138 145 70 50 37 37 47 39 26 25 25 17 25 23 27 34 38 30 29
129 146 145 156 156 160 166 163 187 194 221 192 197 195 209 175 184 165 155 137 130 61 29 25 16 28 15 24 25 18 29 9 24 26 26 20 19 33
126 137 130 145 151 159 173 189 210 206 219 238 218 220 201 174 171 155 132 127 120 61 31 15 24 15 22 27 26 19 19 19 11 1 2 12 13 10
132 117 126 134 142 160 179 181 191 212 209 219 230 205 175 150 139 146 132 120 112 101 62 45 38 28 39 42 27 24 23 16 2 -1 4 5 -4 -10
112 119 132 144 133 138 176 194 197 204 222 227 191 167 147 134 130 125 145 130 118 113 90 160 117 133 135 55 61 57 30 13 -1 4 -15 -23 -25 -13
118 117 134 126 139 161 164 156 171 183 200 182 169 153 128 124 141 140 145 123 130 116 138 135 126 136 135 141 67 74 52 27 22 36 19 -36 -31 11
110 114 131 149 154 169 152 134 135 111 98 116 121 126 122 115 149 137 133 140 156 143 139 131 133 135 142 120 60 110 88 75 41 18 11 -5 3 24
105 118 139 146 158 160 185 206 178 144 121 124 112 106 110 87 91 113 101 119 129 128 123 136 157 135 107 126 126 71 116 91 69 60 33 15 -4 2
129 142 154 168 154 132 192 176 138 111 79 32 23 18 11 3 29 92 96 98 106 110 120 142 130 126 122 134 104 68 191 146 113 80 49 22 3 8
129 141 119 145 133 126 137 132 115 91 70 75 69 61 60 85 39 88 102 117 116 93 134 114 97 88 57 158 121 186 201 177 141 127 71 41 11 84
139 137 146 110 83 69 52 84 58 56 52 75 78 96 117 113 112 110 107 128 128 137 133 74 106 113 143 126 166 175 177 216 210 170 104 56 15 40
138 145 130 66 52 23 29 22 18 30 70 82 100 110 117 126 125 134 128 129 156 187 174 140 170 138 135 115 123 149 161 163 132 145 104 37 48 16
147 92 61 46 21 32 33 29 40 80 90 92 105 119 124 142 137 131 127 134 158 178 172 151 172 169 192 144 72 137 100 115 72 35 119 62 136 100
94 97 71 26 31 40 54 72 94 95 91 94 106 119 127 125 125 136 137 135 136 162 158 143 145 153 149 163 68 90 75 67 91 82 58 107 141 47
66 74 57 56 54 69 81 94 103 106 109 116 127 141 142 134 143 138 145 155 158 96 53 101 104 129 183 134 85 89 68 102 86 58 34 11 88 124
82 55 48 50 62 70 84 93 116 111 136 143 151 157 160 159 155 142 142 136 139 134 85 111 112 82 98 88 63 39 57 81 93 49 22 27 104 80
45 38 37 58 72 92 109 127 144 156 148 166 167 172 177 173 107 134 92 72 78 156 169 149 95 40 76 115 100 43 2 123 74 80 52 43 52 102
42 23 51 67 85 104 121 136 150 162 159 167 188 182 172 172 164 148 133 12 44 94 97 96 72 62 53 64 137 205 87 43 38 61 78 48 51 81
12 18 64 86 111 128 138 149 162 177 154 172 189 192 196 188 181 136 85 45 18 38 86 112 107 76 51 58 74 132 130 61 21 21 25 45 36 52
8 26 75 117 136 141 147 164 173 176 181 199 217 219 219 203 175 143 112 91 99 99 128 147 108 77 61 49 105 149 137 113 94 62 57 40 41 66
32 50 99 134 153 158 166 178 182 202 214 242 248 242 236 209 175 152 141 135 118 120 88 93 103 68 88 102 107 116 98 89 57 64 83 66 43 33

GFSNE_con_3kmhel_048.txt.gz
Helicity
205 243 189 124 116 120 134 144 135 132 130 144 132 115 111 87 66 95 114 119 122 131 145 154 162 177 170 175 151 165 197 134 117 55 61 52 43 54
199 198 132 107 114 126 133 141 162 171 202 178 165 143 113 108 95 113 121 105 117 130 125 140 150 144 149 137 163 131 112 88 74 61 42 47 45 48
173 166 90 92 109 120 134 150 169 201 213 205 188 163 165 147 146 163 159 181 177 112 126 134 125 126 131 132 107 96 76 75 55 51 45 48 58 68
182 155 75 57 101 114 136 149 173 187 212 173 184 183 164 162 172 173 184 172 187 129 117 107 116 115 102 96 75 70 79 59 47 54 59 62 54 65
131 119 130 123 118 149 166 162 170 177 195 211 183 187 173 172 171 157 168 164 158 93 70 68 78 77 74 72 68 76 55 60 62 50 42 34 27 39
135 135 131 132 144 152 146 143 158 179 179 190 210 218 189 161 155 174 166 144 146 135 105 58 47 53 65 65 61 61 65 74 67 46 34 28 21 25
131 149 160 157 130 128 158 162 173 193 212 229 229 237 185 150 153 138 135 130 129 120 115 61 129 147 182 116 89 61 60 61 60 41 37 22 20 25
155 162 163 163 179 186 170 152 179 218 224 226 228 192 159 139 127 130 143 131 107 79 102 113 127 124 145 134 47 27 42 52 59 46 36 37 29 24
140 152 160 170 169 161 169 185 207 191 168 177 181 144 127 121 132 133 127 131 135 126 104 113 110 110 112 104 35 41 42 41 59 62 57 48 51 54
116 126 129 128 154 184 206 221 200 175 151 138 125 129 140 122 109 113 106 133 140 126 107 137 110 117 100 122 67 19 11 35 49 49 54 57 44 29
114 122 141 170 167 148 193 208 168 131 81 30 46 53 59 46 58 123 130 132 126 120 111 112 105 112 104 113 82 -0 39 57 51 60 55 44 35 42
129 154 152 153 141 137 180 160 127 90 92 87 87 67 71 89 57 120 142 147 137 93 111 129 100 77 9 128 79 175 147 94 46 35 35 42 45 68
117 127 149 152 136 138 112 119 84 64 76 55 56 81 97 111 123 131 141 163 140 168 159 102 151 130 142 143 123 137 157 145 147 126 56 45 47 64
136 144 141 109 123 101 93 47 38 53 55 64 76 94 115 127 124 120 122 134 165 168 146 132 184 175 172 90 40 91 141 165 153 153 154 97 51 53
148 119 160 129 100 89 44 44 43 59 63 79 93 112 127 133 120 124 134 144 152 156 156 144 144 82 136 113 76 62 60 137 126 95 89 108 46 38
129 153 128 103 80 50 48 50 62 71 81 100 115 125 118 120 139 141 136 117 111 124 133 114 87 111 89 165 134 87 96 164 139 55 35 17 2 -16
138 94 92 89 67 50 46 48 62 75 95 111 121 124 138 145 152 138 134 118 96 45 67 70 89 128 171 140 72 136 107 86 109 96 35 83 70 55
102 81 85 54 34 26 15 49 77 76 110 119 124 155 169 160 149 128 112 91 85 97 92 99 73 31 53 84 157 165 163 155 162 127 79 58 125 99
70 69 40 28 15 11 56 66 85 112 124 134 160 175 175 184 131 158 150 134 141 135 159 151 132 100 95 148 149 157 142 178 117 87 86 66 100 126
48 23 17 20 27 48 61 76 103 116 121 141 171 172 176 187 182 179 173 168 176 189 194 147 119 127 140 177 215 247 78 57 95 111 116 84 112 136
16 31 32 42 51 54 74 103 117 127 114 138 163 185 200 200 198 186 178 125 101 146 173 165 148 96 111 136 160 182 129 38 57 81 50 55 78 89
41 43 49 51 53 69 89 105 123 131 145 168 179 190 211 213 202 199 175 167 163 181 216 231 185 152 154 137 155 149 146 121 110 76 75 119 134 183
59 65 62 55 68 87 95 112 123 147 170 184 191 188 202 209 194 202 195 163 131 138 127 140 155 144 143 116 111 137 150 160 144 141 120 73 79 103

GFSNE_con_3kmhel_051.txt.gz
Helicity
346 307 254 242 176 183 190 164 165 174 147 137 139 147 164 130 100 103 92 80 89 96 100 122 151 166 181 192 195 179 165 190 126 121 125 80 73 62
379 346 280 278 156 176 139 145 136 136 178 128 147 154 144 131 103 105 104 76 76 96 97 126 138 152 157 149 135 138 114 102 110 103 77 59 52 40
417 235 331 260 204 153 150 129 120 149 174 179 169 170 171 140 130 146 132 155 162 114 133 153 154 143 129 124 105 96 100 90 82 74 64 55 42 39
267 331 279 184 162 147 127 129 136 157 176 170 170 162 151 144 133 138 144 146 166 123 113 117 120 90 99 90 91 88 96 95 58 60 45 46 40 48
432 228 213 183 108 105 111 120 150 154 170 182 160 149 145 132 143 148 159 160 173 87 73 80 69 74 80 78 88 86 73 67 71 66 50 43 48 42
218 173 129 110 98 111 137 131 141 151 157 167 166 180 163 128 162 156 161 163 144 126 101 62 38 62 84 81 86 80 75 71 70 65 54 45 36 47
94 106 98 104 119 123 136 137 151 163 169 182 186 201 171 159 158 166 166 124 118 123 113 108 121 167 190 126 111 85 76 72 73 69 61 43 42 41
108 122 134 162 157 164 168 170 174 187 183 187 211 195 172 172 167 131 125 116 104 73 124 141 115 148 161 137 50 29 38 43 47 48 44 29 30 34
98 114 132 148 164 148 144 154 160 127 131 184 200 177 164 121 125 120 117 133 140 132 116 144 127 152 142 118 40 32 32 24 32 39 35 26 23 27
115 128 123 116 120 121 128 146 161 159 167 174 157 129 122 107 103 112 117 134 146 131 114 162 124 137 126 138 67 6 1 11 34 37 36 34 31 23
102 101 103 112 97 80 130 171 160 150 126 56 55 50 47 33 54 123 136 140 131 126 119 118 134 116 127 122 68 -1 20 37 48 53 44 35 21 11
112 111 104 116 117 119 158 160 143 115 100 76 84 62 70 87 64 135 156 168 149 123 129 162 148 117 61 142 118 149 128 73 41 36 42 4 -0 35
117 127 137 125 113 137 140 145 108 77 76 54 55 76 83 97 112 130 145 190 172 205 191 132 218 177 195 160 118 144 158 145 146 125 64 -13 -29 -7
146 146 138 117 140 128 118 79 50 55 46 58 69 82 95 103 116 127 130 146 183 193 170 149 195 153 78 25 52 105 171 198 189 169 162 104 11 -21
161 150 165 135 118 112 79 50 35 39 46 57 73 89 111 131 134 148 156 153 166 160 134 106 104 84 121 130 124 110 27 194 159 127 118 115 92 80
173 152 130 119 99 70 44 32 36 43 52 70 90 97 111 133 139 138 147 134 131 133 128 118 104 123 151 172 143 157 175 189 196 108 84 57 49 42
145 99 85 76 60 33 30 18 48 62 76 93 102 106 123 136 153 140 162 172 189 166 146 124 122 162 201 139 126 189 167 145 160 139 75 86 73 48
91 63 52 35 20 11 -0 7 47 58 85 101 110 132 151 161 158 148 163 176 177 178 172 169 134 97 98 140 203 186 198 191 182 141 95 93 147 92
42 31 28 46 29 22 25 43 69 85 107 120 135 161 168 191 141 165 170 177 181 179 194 192 182 179 168 191 201 163 169 258 196 135 116 106 137 163
18 32 56 47 40 32 40 60 81 97 107 115 148 160 164 180 184 177 185 181 179 181 191 176 184 200 205 220 225 239 130 84 115 150 168 165 203 221
10 43 56 52 55 58 69 86 105 111 98 109 142 169 172 174 187 189 193 131 104 155 191 194 192 99 134 138 167 186 171 91 90 133 181 201 202 104
18 42 51 56 63 69 84 95 102 114 125 135 156 166 179 190 195 171 182 202 208 191 210 207 157 136 144 131 144 179 211 192 148 105 101 118 143 186
22 37 54 64 73 83 92 95 102 126 138 152 165 176 179 192 184 194 222 235 216 192 173 156 143 132 141 110 110 151 191 189 158 121 113 49 71 110

GFSNE_con_3kmhel_054.txt.gz
Helicity
401 413 436 414 406 235 283 282 249 247 232 209 168 118 95 137 118 121 98 71 75 80 66 59 81 104 127 136 143 154 151 143 140 143 104 73 122 79
446 480 469 440 415 458 384 292 277 259 209 183 145 139 140 137 112 110 96 65 66 69 71 87 105 122 113 104 107 101 112 102 86 87 74 67 62 50
476 458 460 416 458 479 540 413 303 160 182 166 157 159 163 141 123 117 103 113 128 85 104 132 139 118 103 98 75 66 64 57 45 45 43 57 73 67
479 509 421 444 386 320 318 169 125 133 157 145 154 150 130 110 103 107 106 123 133 95 102 118 117 88 74 61 70 69 60 51 56 51 54 56 50 41
422 346 366 342 229 130 119 90 103 110 140 156 146 132 107 95 102 115 132 144 140 90 87 90 84 71 55 57 63 78 63 55 58 62 67 72 50 39
284 307 262 180 144 92 81 102 118 137 149 153 144 143 117 87 124 130 129 150 157 134 109 74 55 59 61 69 69 62 49 49 54 60 63 49 37 31
241 178 136 95 92 79 102 124 149 152 142 143 142 149 135 131 128 137 153 134 124 113 124 126 139 163 186 113 83 49 51 52 52 50 50 50 51 38
138 47 74 105 145 160 136 114 105 133 144 152 160 142 130 135 167 144 139 101 88 63 119 148 130 165 171 153 53 33 35 34 43 52 55 57 45 33
84 103 117 130 137 124 115 125 135 137 152 150 152 137 151 139 145 119 92 109 119 130 121 173 143 167 133 124 41 33 21 18 32 41 46 48 35 30
103 103 110 121 123 126 135 149 139 126 133 140 134 138 125 91 91 103 92 128 156 147 148 210 150 154 133 137 60 -3 2 21 42 53 55 43 35 32
118 118 107 121 121 120 136 136 117 117 109 81 86 59 42 22 43 93 107 125 139 148 172 156 189 173 149 104 52 -3 20 44 49 51 45 1 13 23
105 108 107 109 105 117 174 155 137 119 111 90 75 50 49 57 45 94 136 158 161 148 165 242 239 192 145 233 192 186 146 79 31 10 1 -14 -16 11
127 139 139 134 153 159 132 130 98 74 87 39 29 46 57 77 94 112 128 194 177 222 236 184 286 226 264 274 264 224 197 182 156 113 61 14 -9 -35
164 164 149 139 127 112 104 72 55 57 24 27 39 61 83 96 104 108 117 146 201 202 169 165 277 247 237 235 243 247 228 229 195 160 150 99 32 12
143 136 129 103 82 70 43 35 31 26 32 49 63 93 121 117 115 126 127 142 170 188 183 179 218 194 224 267 286 256 155 186 121 83 80 90 92 68
143 108 65 45 36 31 19 8 21 22 34 56 81 97 105 117 122 145 145 128 133 158 173 186 193 215 235 240 237 271 234 203 168 148 116 113 106 103
91 54 40 26 3 2 13 30 35 40 61 73 87 93 110 111 130 140 172 173 199 187 163 144 161 207 248 214 196 223 202 205 231 223 158 147 128 97
42 19 7 -0 1 14 25 39 55 52 78 87 92 109 126 136 136 153 169 181 172 179 189 191 160 145 151 181 230 278 280 268 246 183 138 117 162 134
13 10 15 9 20 34 43 51 68 88 101 109 109 132 151 169 137 179 180 165 158 184 216 211 195 177 166 192 230 215 198 196 174 178 158 164 205 223
23 24 17 21 34 46 53 62 75 84 89 105 133 144 140 149 169 195 200 183 173 186 191 179 163 167 152 141 155 219 127 156 187 218 210 211 247 252
23 29 36 41 50 59 65 75 89 86 73 96 112 137 145 150 171 194 211 136 121 178 185 182 179 95 149 141 141 169 177 135 139 150 166 157 148 148
31 36 42 52 61 70 77 81 88 88 103 124 137 144 151 168 190 188 193 199 205 198 216 225 176 167 149 110 114 127 164 150 125 81 77 48 91 93
41 46 51 62 75 84 84 89 97 103 114 136 136 145 151 177 193 213 217 230 240 190 170 177 180 166 141 107 82 117 134 140 129 116 113 41 52 85

GFSNE_con_3kmhel_057.txt.gz
Helicity
350 356 391 405 460 469 379 447 468 421 356 432 432 388 363 223 142 103 100 85 77 81 86 81 81 79 76 77 91 110 125 138 141 129 103 112 74 73
423 452 478 470 478 481 469 542 581 423 469 486 376 245 205 137 104 94 93 74 66 71 66 64 71 82 80 78 77 91 104 99 90 69 68 63 79 77
455 480 506 489 461 467 462 396 331 310 304 279 159 121 105 97 103 107 102 94 86 66 69 88 104 96 89 78 80 75 74 70 62 56 63 67 75 73
552 472 508 425 364 352 377 277 233 251 245 181 152 121 114 110 110 112 101 91 88 68 70 106 113 101 79 75 72 65 60 59 58 71 78 64 56 54
476 416 374 359 260 219 210 233 186 162 112 120 105 107 128 109 95 85 78 81 89 74 99 102 83 69 63 57 56 52 52 48 49 52 46 42 37 36
335 332 287 260 219 194 151 126 104 98 109 119 144 148 120 97 93 88 99 97 121 112 88 54 38 41 38 52 64 54 59 73 66 58 51 43 38 34
280 231 202 142 102 95 96 82 88 106 139 144 139 141 125 95 95 110 114 125 115 86 74 66 81 93 114 105 83 61 72 69 67 66 63 54 45 43
196 156 115 113 81 64 127 142 120 127 136 160 147 131 112 115 136 139 129 131 131 47 61 68 83 102 101 81 46 45 35 41 47 46 44 46 47 44
106 92 91 96 134 123 142 145 137 144 153 147 152 144 149 127 127 118 83 69 67 89 66 82 91 81 69 80 46 40 33 33 42 51 51 53 52 37
105 109 116 119 128 137 133 125 138 158 173 169 138 115 105 93 71 55 44 52 70 83 70 117 65 85 81 95 64 0 10 34 35 24 7 -8 -13 15
82 99 114 120 108 117 186 178 162 146 109 85 86 67 47 18 31 60 66 78 85 77 80 91 97 92 72 85 54 59 72 57 36 6 -11 -16 -21 -25
87 102 122 131 134 155 162 147 134 105 78 72 57 28 24 35 47 84 88 93 89 85 115 119 109 76 70 133 139 151 101 78 42 33 18 -4 -21 -71
123 122 121 115 113 99 87 88 50 29 56 17 14 26 41 55 71 81 84 106 112 153 142 122 172 131 177 194 168 171 151 149 94 76 31 -1 -12 -33
128 115 95 83 68 44 30 6 -9 -12 -1 11 23 35 46 58 73 77 72 96 131 156 141 128 214 174 187 176 213 185 180 172 120 94 77 37 18 3
94 92 71 45 22 5 -10 -20 -12 5 18 30 41 49 54 64 68 71 73 80 106 139 144 116 161 168 199 233 253 227 161 147 108 87 86 73 44 6
104 65 36 16 -3 -14 -10 -5 5 17 28 39 50 46 49 67 74 79 78 57 64 79 95 116 128 149 189 207 215 241 191 193 153 162 127 110 79 45
82 48 23 4 -3 0 4 11 16 22 30 37 40 41 50 58 71 81 102 96 103 119 109 121 120 140 190 180 193 208 195 215 216 191 119 126 106 70
73 46 30 19 14 7 16 20 27 28 34 34 38 47 56 64 67 86 99 116 140 139 145 167 154 130 117 146 184 230 244 237 221 166 140 176 211 156
72 49 40 25 14 14 22 30 38 40 41 39 43 51 66 76 80 102 112 116 127 143 160 165 156 125 131 142 119 128 146 148 120 125 124 137 171 183
60 49 34 25 23 26 29 33 36 39 44 41 51 60 77 84 99 128 133 136 139 143 154 142 146 136 134 92 63 142 98 138 110 113 106 102 139 151
63 47 35 30 31 34 36 40 44 49 44 57 62 69 82 90 114 134 148 104 89 150 174 157 145 72 122 102 92 105 110 109 130 123 109 93 90 90
57 48 36 30 32 33 37 45 48 51 53 59 68 72 78 91 118 126 153 162 153 149 189 209 150 115 101 84 74 79 116 93 101 72 82 82 86 94
52 45 35 31 30 32 43 51 60 66 78 85 83 69 79 101 118 146 176 184 168 166 178 166 129 101 87 74 71 104 97 94 84 54 77 90 84 96

GFSNE_con_3kmhel_060.txt.gz
Helicity
333 325 377 358 361 334 342 377 368 364 408 470 458 486 430 379 301 304 189 129 118 79 66 74 86 88 87 82 89 99 114 119 118 113 120 128 119 133
431 543 576 419 372 389 448 434 439 398 402 379 324 327 293 295 217 155 132 105 86 63 65 66 72 74 76 73 67 74 80 80 74 87 95 104 124 128
371 373 484 538 310 588 376 365 365 308 278 298 331 286 238 202 183 167 147 100 91 66 48 62 68 69 56 62 65 68 62 53 56 58 64 64 73 72
408 429 444 457 438 360 358 247 260 251 249 243 265 220 190 168 150 150 133 108 110 79 73 80 73 69 75 68 72 69 56 45 37 42 38 36 41 49
380 370 338 320 282 212 217 270 259 262 190 242 209 173 171 138 112 104 119 113 102 68 87 102 90 91 79 69 63 42 33 31 31 37 42 52 58 58
338 328 273 232 199 223 277 251 207 186 157 146 151 135 116 123 132 124 130 112 101 91 96 85 78 63 38 42 38 38 45 59 72 78 71 60 60 53
306 244 229 218 217 182 173 149 133 134 142 124 122 136 123 124 130 135 110 109 105 105 125 108 94 70 73 66 57 52 67 81 81 84 73 66 67 71
226 199 178 185 157 145 107 65 83 116 124 168 178 148 132 137 139 128 132 135 135 78 90 50 72 74 77 68 41 48 59 72 75 66 66 66 74 81
132 120 106 101 112 122 128 106 115 141 153 169 173 161 151 152 185 117 85 73 56 46 46 53 51 60 57 54 35 50 53 51 54 59 62 71 66 66
65 76 97 112 105 102 108 112 132 152 181 182 168 138 110 86 77 50 32 33 46 50 54 82 57 60 60 60 51 30 26 45 64 67 56 52 49 49
52 79 84 86 124 109 133 152 150 152 137 104 75 44 20 7 11 45 56 67 76 67 69 69 58 68 97 114 51 45 73 59 59 51 44 42 39 55
75 95 123 145 149 160 117 122 130 102 57 20 15 5 12 27 48 70 87 107 101 88 106 116 86 64 60 92 74 97 79 66 49 52 42 50 43 77
110 117 116 111 120 123 107 80 53 6 -3 -10 1 22 37 50 70 89 102 126 128 152 108 144 143 103 145 161 124 133 122 109 104 106 49 46 58 90
96 103 111 113 100 85 61 36 -6 -24 -8 9 21 34 47 55 65 77 86 104 131 147 117 134 209 161 171 172 185 127 136 133 108 107 98 49 30 30
99 109 94 92 81 57 39 7 -13 4 9 20 30 36 42 45 48 56 75 91 107 138 143 131 178 183 205 247 233 175 115 104 89 64 70 86 64 38
80 83 89 78 58 45 25 15 12 17 21 29 38 36 34 42 53 60 64 68 76 79 117 151 169 174 183 188 185 192 148 147 136 142 111 95 73 54
94 102 104 93 71 49 37 29 27 25 32 37 41 37 37 41 49 61 74 83 97 88 85 112 135 161 196 180 179 178 135 149 137 122 107 138 134 134
94 115 119 99 82 68 47 37 31 31 38 42 40 38 39 44 49 55 74 95 103 107 112 118 122 133 136 133 159 180 168 150 134 88 85 89 111 111
99 113 105 90 77 56 43 41 36 36 40 43 44 41 42 47 51 56 63 81 96 110 123 133 138 148 154 142 113 98 93 115 77 69 83 88 78 101
101 102 92 79 61 49 42 39 39 36 40 48 49 47 57 58 62 65 72 82 100 110 124 126 125 126 146 57 41 125 113 124 130 87 74 67 88 81
111 93 80 65 56 46 40 38 36 39 43 53 55 58 60 64 70 77 87 63 58 115 137 147 140 65 119 109 120 121 131 135 113 112 97 65 42 25
97 78 63 55 45 38 35 36 36 39 48 55 62 69 71 71 76 78 87 110 107 132 153 179 154 158 161 120 91 90 102 107 101 84 85 95 93 74
80 64 57 47 36 30 31 35 40 54 62 70 75 78 77 81 81 90 104 113 129 133 118 145 160 169 151 146 83 98 97 101 83 61 89 65 64 84

GFSNE_con_3kmhel_063.txt.gz
Helicity
263 376 510 488 435 430 423 365 326 373 245 290 313 322 345 378 401 369 341 288 207 125 118 101 100 103 78 80 83 78 76 80 87 85 76 90 102 101
408 428 442 407 417 445 414 485 421 184 275 260 242 233 247 281 316 279 240 170 105 117 99 96 101 69 68 62 58 60 72 85 90 93 99 103 116 104
343 349 357 361 348 337 426 419 287 308 343 211 228 269 269 299 233 180 135 155 146 102 91 91 77 73 70 51 48 66 70 78 86 85 87 84 90 73
272 283 300 323 315 252 258 273 293 289 220 210 263 256 210 169 167 159 133 119 117 97 91 89 75 71 65 56 63 61 69 67 57 57 57 57 58 63
238 243 231 233 239 210 235 179 224 227 190 228 247 186 165 140 136 118 124 125 126 83 72 77 85 87 78 72 59 52 48 42 45 50 51 56 51 49
287 265 238 193 144 171 209 213 187 194 189 164 161 143 128 119 123 143 151 141 140 121 122 107 89 74 60 57 40 33 31 39 53 62 64 59 55 52
299 248 211 181 153 157 142 125 152 151 144 117 100 88 95 110 148 164 167 158 139 117 117 105 100 84 73 42 41 39 55 75 78 75 70 61 42 34
182 190 144 168 154 158 145 135 114 97 94 100 122 127 160 202 199 207 201 137 82 60 84 52 83 82 87 92 42 49 60 65 66 62 51 42 34 36
121 143 161 139 87 82 81 82 96 109 130 154 155 181 177 182 156 99 52 39 41 71 78 91 108 96 98 84 40 38 45 44 42 50 48 49 41 42
47 30 26 45 79 87 89 107 134 140 149 166 159 128 104 53 33 44 51 56 65 76 84 119 99 90 90 96 60 24 26 45 51 43 37 42 52 54
29 72 83 101 128 124 132 145 134 156 133 86 70 23 -7 -13 6 32 58 65 70 75 94 99 104 94 83 102 72 12 57 81 67 60 51 57 69 59
76 93 117 123 120 133 132 142 146 142 124 82 38 16 11 24 28 59 63 71 78 85 103 128 144 93 75 149 122 132 101 62 38 44 47 50 55 126
87 97 104 122 127 117 119 124 139 103 75 47 30 31 35 44 59 70 80 98 85 113 125 116 168 139 178 198 167 151 106 98 97 92 60 41 48 64
84 93 113 116 104 110 116 121 98 82 63 51 49 46 53 55 64 74 70 78 91 100 90 119 215 175 193 179 166 122 111 107 90 86 89 52 27 4
88 91 72 82 95 103 119 110 92 70 56 56 56 58 51 55 56 58 64 81 84 102 109 131 186 185 223 247 232 154 93 99 98 93 72 75 72 85
86 87 90 93 101 108 109 93 73 59 60 59 61 61 60 58 65 66 63 66 68 71 87 101 135 187 214 235 264 241 191 182 163 156 138 144 147 154
69 79 93 106 118 120 114 90 71 62 64 64 59 59 63 61 66 68 66 70 81 74 68 92 124 158 222 240 245 215 184 195 197 148 138 151 125 135
80 93 109 118 123 118 102 89 77 63 55 55 56 55 56 59 59 65 67 71 76 75 82 87 100 133 161 210 181 227 172 137 124 99 65 54 66 88
88 111 123 126 116 101 90 75 65 52 48 54 54 55 53 55 46 68 65 77 86 78 87 91 101 122 125 139 176 149 129 101 90 118 103 99 89 90
121 128 128 116 100 86 68 64 59 54 51 55 55 59 63 71 73 76 81 84 97 99 105 88 101 119 143 52 58 194 147 125 153 158 131 101 101 69
136 136 120 101 83 68 68 60 51 51 55 64 68 71 74 84 87 81 78 46 50 90 96 88 93 53 122 133 172 194 184 170 163 132 144 117 86 82
139 132 107 86 72 69 60 60 52 51 63 65 71 82 88 91 94 87 97 95 100 117 117 108 110 139 150 153 93 107 115 179 152 114 100 93 88 116
139 125 100 79 68 66 57 63 63 73 76 79 87 92 93 96 109 119 115 108 125 134 140 113 127 141 158 172 102 106 83 148 159 125 148 100 94 106

GFSNE_con_3kmhel_066.txt.gz
Helicity
243 294 365 407 434 434 426 434 427 381 362 318 335 412 278 293 281 288 250 279 232 170 121 109 88 58 69 100 96 80 67 76 86 94 79 68 62 76
303 340 373 389 406 395 385 378 401 404 309 309 307 204 217 273 240 221 195 172 141 93 69 74 73 87 94 83 75 73 73 80 94 91 77 81 93 92
284 284 311 302 303 300 280 266 283 274 250 218 283 219 229 239 214 173 150 127 120 87 99 87 91 116 100 87 79 69 76 88 88 94 99 100 99 105
230 201 196 210 222 186 207 184 166 152 171 190 198 212 194 145 154 149 125 120 113 98 95 97 102 94 83 75 77 83 83 78 78 83 91 93 88 82
174 158 138 174 189 195 191 200 197 192 170 156 163 165 145 143 115 115 116 120 116 99 113 113 132 98 90 96 83 78 69 67 67 61 53 45 41 40
239 316 230 205 180 160 185 142 78 137 157 150 114 127 140 117 111 111 136 144 144 159 147 126 84 74 60 45 37 38 44 48 51 52 48 43 40 35
275 243 206 168 133 153 137 123 111 102 133 146 110 106 107 121 129 150 171 175 139 104 76 64 40 30 54 56 60 57 64 65 62 55 45 35 26 22
181 188 203 149 201 162 136 135 154 102 70 70 92 129 145 150 172 178 157 118 112 45 33 81 80 97 113 113 57 44 50 53 49 42 32 20 13 6
137 115 103 115 103 84 70 61 54 80 116 131 142 144 155 168 154 129 89 83 90 79 69 66 102 99 107 91 49 37 37 45 50 46 39 33 25 16
58 44 38 21 27 65 97 103 105 109 117 151 164 171 155 147 118 72 49 50 57 65 64 100 101 90 66 114 69 12 29 56 71 73 63 49 50 42
48 62 75 83 88 107 122 115 126 150 148 115 110 93 76 39 22 62 64 77 79 72 81 80 68 67 65 76 60 31 70 83 66 52 43 51 49 46
86 95 115 116 131 138 140 144 137 124 125 116 125 121 80 41 18 59 78 85 73 84 57 77 87 40 20 68 101 98 100 80 57 52 43 46 54 95
94 93 92 107 99 95 102 110 105 100 107 116 115 106 70 52 50 60 64 89 74 81 76 66 100 62 98 122 138 159 96 108 104 66 46 49 45 52
79 86 84 72 79 86 104 109 107 113 111 110 113 94 72 61 56 67 64 57 57 61 57 73 127 96 109 113 134 156 134 116 126 132 106 45 26 16
67 61 64 70 82 93 99 95 105 105 104 111 99 79 72 59 53 56 61 63 64 71 71 73 106 111 148 167 186 171 122 139 115 102 158 142 119 120
67 54 53 66 69 74 85 89 94 87 90 91 84 71 60 61 60 69 70 71 67 73 101 85 108 129 122 157 197 209 178 172 161 170 171 152 157 165
55 66 77 91 100 101 99 92 90 88 94 84 77 63 60 59 60 66 69 68 72 65 73 79 93 117 157 170 162 180 162 187 220 218 149 131 140 139
72 75 87 100 112 114 110 101 92 89 86 79 75 65 62 61 59 60 70 77 73 79 80 78 85 93 106 145 141 181 169 199 217 199 81 0 69 91
81 84 98 106 115 110 101 93 82 69 60 63 64 68 66 64 37 67 77 80 74 79 92 86 91 82 46 65 129 69 140 165 159 151 188 187 130 135
109 105 105 110 113 108 87 70 68 62 60 52 56 65 68 68 67 76 79 80 79 83 91 101 96 95 85 1 -7 125 131 158 161 67 187 188 198 124
93 104 119 120 117 96 78 63 58 61 46 53 57 66 78 87 91 97 89 43 48 75 78 99 128 46 99 123 56 176 214 190 185 77 138 194 151 111
115 110 114 113 108 93 64 57 65 53 57 63 71 80 88 103 93 88 93 100 102 109 105 129 127 119 128 114 -18 8 77 173 189 160 159 147 145 142
123 112 109 106 94 82 56 57 63 59 72 73 79 88 100 102 105 114 115 117 120 119 124 116 101 112 135 144 16 -7 13 48 98 144 156 135 120 97

GFSNE_con_3kmhel_069.txt.gz
Helicity
144 159 246 325 354 361 353 341 262 289 292 387 446 510 506 454 300 331 273 263 202 105 65 81 94 118 105 106 98 97 110 97 90 86 92 92 88 85
173 190 225 238 261 279 270 271 284 284 253 295 309 309 288 307 235 257 189 121 108 87 86 104 99 106 84 76 73 85 94 82 86 89 93 96 105 122
200 190 202 200 197 178 179 163 187 202 151 197 217 239 221 219 159 197 164 146 134 89 88 84 88 75 84 88 87 82 83 89 88 92 97 100 104 115
186 191 182 174 186 184 185 129 133 155 164 128 184 112 142 145 182 142 122 122 113 91 69 88 91 79 96 110 92 89 98 92 93 89 91 90 78 69
186 182 191 188 218 176 199 122 136 139 149 96 91 137 162 171 153 152 137 103 108 94 93 126 105 102 98 88 79 67 60 53 49 47 38 31 32 36
186 184 193 196 159 138 170 177 156 147 149 150 131 151 165 162 167 143 129 134 154 153 146 110 89 86 61 31 35 47 58 64 63 58 51 47 44 40
192 180 162 170 195 136 157 166 157 136 161 143 138 136 134 122 108 139 151 173 167 147 142 102 39 27 35 40 44 53 63 65 61 55 50 43 36 30
113 124 150 179 233 152 163 100 79 103 117 109 86 78 110 147 176 183 180 181 169 105 76 73 47 56 53 64 47 50 59 65 61 54 49 45 37 32
49 71 76 79 81 71 70 73 69 107 103 96 118 145 162 180 184 158 145 145 147 79 67 106 60 92 54 67 40 37 44 52 68 78 73 57 37 35
67 74 84 97 107 131 136 134 126 120 120 138 142 138 134 129 129 128 115 105 80 72 60 94 73 85 57 99 34 48 67 95 113 107 96 76 58 51
74 90 106 108 111 118 120 118 109 125 123 122 109 96 91 86 90 122 115 122 103 76 64 76 75 69 71 61 78 104 129 90 82 97 105 76 59 49
59 68 82 92 96 94 106 106 113 105 112 121 123 121 114 96 69 79 80 98 84 98 73 83 89 47 46 51 74 106 100 81 73 75 80 80 65 68
56 52 55 69 62 70 82 88 87 93 105 107 105 104 104 107 96 72 56 79 78 75 63 70 87 71 41 68 74 115 109 140 157 125 102 86 60 52
51 48 45 47 62 70 85 78 80 97 97 101 104 104 105 93 78 67 63 53 60 59 64 70 85 78 77 92 103 92 117 132 143 160 161 119 78 50
45 34 40 45 53 69 75 69 90 92 93 102 99 94 93 73 67 57 55 53 55 61 67 76 83 72 89 108 118 108 79 112 84 70 160 176 174 171
42 42 34 44 57 67 80 89 90 86 90 93 94 83 70 74 76 69 63 60 51 62 75 72 64 79 101 109 116 110 92 91 98 109 169 181 168 185
45 52 60 71 83 100 107 104 99 89 95 89 88 82 71 67 69 67 65 62 55 53 56 91 77 97 120 111 103 113 100 97 119 165 134 122 116 137
64 67 74 85 97 112 114 109 93 87 87 86 77 71 69 70 67 73 78 74 60 67 66 77 86 91 105 116 107 115 100 135 155 162 166 167 143 124
76 77 84 92 114 122 119 110 99 86 72 69 66 64 57 62 43 52 63 79 79 81 85 88 99 81 68 72 109 50 88 129 72 87 141 192 132 102
87 87 91 102 113 125 117 99 94 81 72 63 62 62 59 61 64 73 78 73 78 83 89 98 120 102 97 83 80 102 85 99 119 6 147 165 190 123
82 81 96 107 118 122 107 95 86 80 66 65 66 63 62 68 81 97 91 40 33 70 77 95 118 72 96 92 127 136 114 85 112 150 76 59 29 46
98 98 106 110 113 118 108 93 87 80 70 69 70 76 85 87 84 86 90 85 87 98 111 117 116 129 122 131 120 110 124 113 124 114 118 76 -12 15
97 100 106 110 116 116 110 105 90 86 88 78 75 85 91 83 95 97 94 92 92 95 107 108 111 111 111 113 98 124 118 102 85 74 137 137 150 91

GFSNE_con_3kmhel_072.txt.gz
Helicity
160 166 167 193 226 263 261 260 251 200 168 154 202 258 322 400 429 462 361 207 117 154 132 119 118 91 68 79 96 109 109 102 94 85 74 70 70 70
209 212 193 180 187 199 207 222 232 252 220 178 170 197 225 383 278 309 267 146 115 114 85 73 100 96 104 97 75 74 70 72 76 78 85 93 102 103
233 235 218 180 181 203 176 191 191 196 187 235 207 193 214 206 246 213 149 186 132 115 108 121 92 85 83 69 71 71 77 89 86 90 97 103 96 94
234 213 176 155 148 153 152 177 180 159 126 205 150 148 159 147 162 148 140 137 125 136 118 85 72 62 73 90 96 94 97 94 81 64 44 37 35 39
172 131 130 127 136 138 121 157 163 131 147 132 165 123 103 150 147 143 153 149 121 93 88 88 103 103 102 101 92 78 67 42 33 34 35 34 36 44
129 123 132 109 87 110 115 98 116 157 172 186 163 148 151 153 160 160 136 118 115 135 127 118 102 106 119 106 50 24 28 34 34 29 26 28 32 37
134 139 96 80 86 100 92 98 133 162 133 166 153 155 165 125 105 126 153 159 151 148 141 146 144 124 70 32 33 35 38 37 36 31 30 31 32 36
21 36 47 74 88 88 96 92 83 84 71 79 99 111 132 157 182 186 197 198 172 148 153 151 85 84 50 52 39 39 41 41 35 36 36 37 40 41
47 55 65 70 83 89 94 119 130 130 129 132 148 155 173 171 173 173 164 158 149 143 121 149 77 86 71 68 42 39 43 53 70 80 94 72 49 47
55 67 78 82 66 91 98 101 108 119 118 122 131 132 130 128 132 130 133 134 136 114 76 146 88 100 80 65 89 96 114 130 119 88 70 59 63 54
44 50 66 75 87 89 93 101 114 126 133 134 118 101 95 84 95 154 152 172 171 132 68 99 101 79 74 87 106 139 117 106 89 78 72 66 63 57
43 54 66 75 71 64 79 81 84 87 100 106 108 109 109 99 107 105 119 149 141 142 76 100 76 62 85 77 88 78 88 90 75 76 67 62 69 100
45 43 44 41 44 53 69 68 65 78 85 92 93 93 96 103 106 105 89 100 117 102 79 90 73 73 67 55 68 116 113 140 151 120 77 62 58 73
46 42 37 38 54 59 71 57 69 94 96 97 98 99 97 93 84 71 65 65 73 82 72 84 90 103 88 80 91 100 139 143 125 139 123 70 59 52
40 31 27 41 60 69 69 74 107 101 100 104 98 93 94 83 73 66 67 64 68 81 82 103 96 81 94 97 102 102 88 75 112 85 128 133 136 127
33 37 41 56 70 79 91 104 106 107 111 109 100 87 74 73 73 71 73 73 65 79 87 93 92 88 67 86 99 101 96 75 94 101 113 122 129 144
50 57 69 79 86 95 104 113 119 118 125 107 103 95 79 67 61 66 63 56 58 58 57 80 102 110 96 83 84 113 103 76 77 96 102 75 89 100
72 69 76 82 85 98 106 115 122 116 120 114 96 87 77 69 63 69 68 61 56 70 78 91 91 111 91 83 105 91 98 106 113 131 105 53 40 74
84 82 83 85 93 105 112 123 126 130 124 112 104 95 83 76 57 70 70 71 67 88 95 106 124 125 76 53 92 67 84 122 120 105 86 93 50 75
93 92 92 96 101 111 121 124 119 129 131 120 108 101 94 80 78 85 100 77 75 85 93 120 137 132 102 89 69 68 89 108 110 104 106 100 103 6
103 102 105 106 110 115 120 121 122 129 129 129 126 109 99 94 92 99 92 48 44 74 79 97 119 49 96 97 100 101 91 70 90 114 125 93 27 10
113 113 112 118 116 116 118 124 125 136 128 129 122 114 107 119 100 96 99 90 92 97 99 103 100 111 118 96 96 83 78 87 91 86 75 102 7 21
120 120 118 121 123 122 125 126 126 130 143 142 133 121 115 120 124 116 111 107 103 104 105 100 98 88 89 95 68 78 56 83 102 105 160 122 66 -53

GFSNE_con_3kmhel_075.txt.gz
Helicity
194 201 208 230 234 233 226 221 216 186 190 210 181 124 117 158 141 231 271 210 299 228 110 58 112 167 150 143 99 88 82 103 96 107 85 68 60 60
157 173 195 193 200 195 191 194 200 199 187 198 175 124 135 182 254 274 265 213 160 191 182 115 68 62 75 92 129 110 111 94 81 63 53 60 77 83
148 160 188 190 202 161 157 166 173 162 160 170 141 156 179 204 233 220 198 168 125 137 151 99 114 113 110 108 113 80 80 62 56 68 70 76 88 98
173 197 198 195 165 141 140 149 135 109 110 115 125 134 152 175 144 158 141 105 106 110 100 91 105 102 95 82 86 94 80 72 72 76 87 83 66 47
142 168 160 142 144 118 104 111 115 90 103 70 95 87 120 137 124 149 146 125 114 99 104 101 101 100 107 89 75 79 83 105 105 86 54 44 44 40
157 144 133 116 92 83 80 91 57 86 93 98 114 122 116 108 126 155 123 99 84 90 98 119 118 112 100 106 116 122 117 82 49 36 36 36 28 24
120 112 103 77 77 54 37 57 76 82 79 84 88 100 107 113 127 129 149 151 132 133 134 131 137 134 126 124 118 87 48 34 35 38 43 36 26 19
44 43 45 63 65 74 82 103 102 110 127 138 144 145 130 137 144 150 159 168 151 157 158 154 134 153 132 110 56 33 38 47 49 41 35 36 31 21
48 49 57 57 69 78 100 124 136 141 140 135 139 139 137 136 145 143 138 130 113 121 132 154 148 157 93 62 40 35 40 45 47 62 75 61 46 35
53 52 63 68 49 81 87 101 114 128 113 115 118 114 112 110 121 122 119 125 117 109 117 151 122 121 73 49 60 70 112 143 117 91 69 51 45 36
60 55 69 82 78 77 78 89 98 107 119 130 120 109 105 98 90 129 98 127 115 103 96 116 101 88 73 77 105 134 149 142 89 77 75 53 36 24
60 64 74 69 65 62 75 82 92 91 104 111 113 110 110 101 109 94 106 119 120 119 83 113 105 99 118 97 110 107 95 90 94 74 58 43 41 64
63 56 52 48 61 63 78 76 74 85 95 101 102 105 108 113 111 107 98 102 109 100 69 77 86 89 94 86 75 96 114 112 116 106 67 57 56 56
53 47 43 36 50 53 64 49 69 101 95 101 107 113 116 111 94 84 73 74 71 68 56 78 89 97 97 66 61 76 124 143 144 136 148 93 51 48
47 37 38 39 49 61 59 69 108 101 104 111 112 117 119 99 80 78 74 65 65 64 67 78 85 83 106 75 39 39 56 101 137 129 112 120 120 123
50 52 44 52 65 73 87 98 102 105 114 121 121 116 110 104 100 92 90 83 73 82 69 71 81 90 79 86 63 40 67 65 87 88 97 105 115 122
68 68 73 80 84 89 93 97 107 115 128 130 129 124 115 108 107 99 92 86 83 98 112 101 78 103 115 95 69 79 83 75 83 61 94 80 86 103
92 84 83 88 89 93 99 104 117 113 129 145 135 128 121 116 108 108 103 99 83 93 103 116 112 92 115 76 91 107 95 80 98 111 118 95 71 87
100 100 98 93 91 98 110 123 126 121 136 137 129 130 125 116 95 110 115 118 100 108 118 133 122 115 79 85 76 50 116 108 130 104 112 96 94 102
116 111 104 104 110 116 121 138 132 127 142 133 134 134 130 119 105 116 132 129 112 108 105 124 145 139 112 95 77 87 56 114 126 114 96 106 111 54
123 125 126 122 122 130 132 140 146 138 147 144 141 145 139 130 116 128 125 84 82 110 104 117 139 77 116 110 98 106 106 44 63 112 104 101 75 77
128 134 128 137 146 150 143 149 146 140 141 161 169 148 145 151 144 135 135 131 132 140 134 124 125 146 150 119 100 78 70 66 66 48 26 36 93 120
138 144 139 140 149 147 158 163 160 154 161 166 181 181 165 157 149 148 145 141 137 135 131 124 124 144 125 117 83 96 76 78 69 82 114 89 63 72

GFSNE_con_3kmhel_081.txt.gz
Helicity
243 226 195 170 139 126 147 173 186 184 188 177 136 110 79 69 95 95 101 75 81 108 199 205 287 376 374 270 240 205 104 71 63 50 63 52 39 37
200 177 163 146 146 168 176 181 175 166 168 152 135 98 89 83 91 107 135 199 260 227 208 159 178 175 172 144 117 118 116 70 65 57 61 52 47 35
178 173 164 148 163 172 180 191 167 129 119 121 115 84 71 70 84 98 116 130 95 139 131 120 81 70 71 98 97 79 77 67 82 72 66 71 76 80
170 161 147 121 151 150 134 125 113 100 85 95 83 73 72 84 81 88 89 86 98 103 102 84 83 93 90 78 56 67 81 68 69 81 84 77 87 99
151 135 122 116 116 109 100 87 93 82 79 74 77 69 70 63 62 61 68 86 91 91 84 81 82 84 84 76 105 89 82 72 76 105 116 110 110 119
157 138 111 92 80 64 61 62 59 67 77 78 74 74 78 73 74 85 103 109 104 104 105 111 114 116 113 115 109 110 110 108 98 99 94 97 91 91
124 101 89 73 81 76 66 68 71 78 82 87 92 87 87 92 97 90 98 93 104 115 110 109 100 87 84 90 94 86 87 88 83 78 73 67 57 54
66 76 85 85 96 110 110 102 93 81 83 82 87 96 101 93 88 94 96 92 85 106 94 78 89 94 102 101 92 76 60 48 39 27 24 23 30 47
60 64 73 79 84 77 78 95 100 104 97 81 89 92 92 82 82 85 90 88 86 85 71 77 75 79 84 83 75 48 23 12 15 17 21 37 48 43
57 56 67 60 64 67 65 74 87 94 83 81 85 78 75 68 67 74 80 79 72 80 69 81 91 96 69 53 36 23 29 64 77 67 62 49 42 39
51 56 62 66 65 67 62 60 61 71 74 81 79 87 73 67 61 66 69 77 82 93 88 93 108 103 88 90 71 108 118 67 63 66 62 50 38 30
51 61 61 48 64 67 59 58 67 63 59 57 65 69 79 89 104 84 83 87 92 92 99 96 112 112 110 78 82 70 57 54 55 61 43 23 21 33
55 56 49 57 55 58 56 47 50 51 54 58 63 68 75 85 91 95 94 103 105 110 110 108 110 104 98 84 62 63 49 75 67 53 44 50 48 47
57 52 48 41 48 45 45 28 59 58 54 62 68 73 80 91 96 99 89 92 93 96 92 97 99 96 87 72 68 77 68 47 55 72 54 53 65 55
53 48 48 51 48 49 42 45 68 56 60 63 71 81 91 101 96 92 95 90 89 96 95 91 88 74 69 72 74 70 78 95 115 83 136 112 80 78
62 70 64 55 50 53 59 68 62 64 65 67 77 88 89 88 92 95 95 99 97 109 104 94 89 88 72 67 63 79 78 80 92 97 92 84 89 95
85 81 79 77 72 70 69 69 74 75 73 81 88 92 91 94 96 100 103 102 101 112 124 123 104 86 84 86 88 90 85 74 75 74 84 97 91 89
100 92 88 81 78 82 83 82 82 75 78 92 98 94 90 94 98 104 111 112 106 106 108 117 123 122 110 73 74 73 60 67 77 77 73 75 82 82
97 97 96 92 93 94 92 94 88 83 92 98 98 95 96 100 98 106 111 116 106 106 104 109 122 140 123 103 93 47 76 67 91 101 96 83 75 89
124 108 104 107 107 104 103 105 92 80 89 97 99 103 110 103 102 103 111 119 103 100 96 111 133 144 151 139 121 101 98 102 87 95 95 79 70 38
122 121 124 120 120 120 114 109 100 85 96 102 105 111 120 125 113 111 107 88 90 108 102 103 117 103 137 159 160 117 94 55 46 74 89 84 81 64
143 133 136 137 133 126 122 113 104 95 103 113 113 117 127 135 124 115 113 111 114 117 112 103 103 122 153 170 143 113 89 66 57 39 25 23 78 76
181 155 147 148 148 139 127 113 108 103 118 124 120 123 139 142 135 122 118 121 123 126 119 113 112 122 127 131 117 109 77 71 63 63 83 55 20 -9

GFSNE_con_3kmhel_084.txt.gz
Helicity
282 274 257 238 211 173 154 144 146 153 130 168 146 119 90 64 72 86 122 219 132 202 210 196 233 300 287 216 322 328 307 231 145 100 68 40 33 45
226 212 193 178 151 144 137 124 139 154 166 163 127 93 76 57 55 85 111 143 215 211 196 180 174 183 147 171 142 116 152 162 111 62 48 32 7 26
182 167 158 144 134 132 135 145 151 139 116 115 88 71 59 45 55 76 88 101 116 148 125 125 135 126 65 38 52 74 90 96 86 65 40 36 43 55
160 152 142 130 127 128 134 128 109 95 91 93 77 63 56 40 44 60 63 51 45 68 77 96 99 87 74 95 104 103 81 77 88 95 107 107 95 94
143 135 131 118 123 111 96 78 63 52 56 58 65 65 58 54 63 70 83 84 91 94 101 118 133 127 137 140 132 114 109 109 102 108 119 123 118 107
159 147 130 121 93 64 61 62 62 66 70 78 85 80 70 70 77 80 80 94 98 103 111 119 125 128 130 132 129 123 118 119 111 104 95 100 102 91
141 132 106 71 75 66 57 67 69 80 89 92 90 84 77 79 90 83 81 78 88 100 98 107 113 106 98 90 91 91 98 95 98 102 108 104 83 74
107 84 78 82 76 87 100 113 110 95 100 97 84 84 84 84 84 89 83 80 81 95 91 83 92 90 89 94 112 105 106 99 92 83 67 54 43 35
63 54 56 54 50 52 77 97 110 124 118 84 83 82 80 84 85 74 76 69 68 77 67 69 79 80 85 81 84 87 79 65 55 45 31 14 15 27
55 55 54 51 60 60 68 83 81 82 81 85 87 81 81 70 67 64 57 55 55 70 70 75 84 85 83 77 79 69 60 67 78 70 44 50 52 43
55 54 50 53 63 62 64 60 60 71 77 78 79 78 64 55 48 54 56 59 65 79 86 91 105 98 97 97 94 133 125 117 76 60 56 62 58 44
50 48 48 50 55 56 47 54 63 70 60 49 51 54 54 76 68 55 67 72 83 82 104 99 109 126 125 113 93 80 66 51 46 46 48 44 37 41
49 45 42 44 51 47 45 62 67 66 62 57 59 59 59 66 67 77 86 93 89 97 125 110 115 119 130 125 99 84 71 72 72 67 50 45 46 50
45 47 52 43 41 41 45 57 61 57 58 60 60 60 62 69 79 80 82 80 85 94 101 114 113 126 124 115 111 106 94 75 71 69 66 62 43 38
49 52 50 44 43 51 47 47 60 56 62 62 61 64 72 83 81 80 73 75 80 90 95 109 100 101 107 112 108 93 99 111 106 91 76 68 91 82
51 53 57 58 56 57 64 57 65 63 70 70 70 74 83 83 77 82 82 87 90 101 112 109 101 98 103 102 92 87 78 93 100 102 103 88 75 72
68 75 80 80 81 85 84 79 80 83 85 83 82 80 84 89 81 84 87 92 97 102 110 122 114 96 92 95 99 91 83 86 87 90 94 100 92 75
83 88 87 88 89 94 95 96 99 93 94 97 87 83 90 94 90 91 98 104 104 107 110 121 128 124 113 98 87 90 83 81 88 91 87 93 100 88
86 87 91 95 98 102 109 110 113 110 119 108 93 91 95 95 93 99 107 110 110 106 111 122 131 137 139 126 107 92 100 101 107 103 100 100 94 96
93 97 102 106 107 115 113 121 124 127 120 106 95 97 96 97 104 106 108 110 112 106 103 116 134 147 149 136 134 102 118 112 101 97 97 98 93 52
128 137 134 134 130 143 127 131 134 136 125 112 98 103 102 110 113 114 112 100 100 105 105 109 130 132 151 167 159 110 97 71 87 113 97 95 82 78
146 144 153 161 156 167 162 138 144 149 142 119 107 106 112 127 124 121 121 122 119 118 113 117 122 137 161 171 146 107 78 75 77 64 59 53 105 107
161 163 169 180 191 217 194 181 181 201 180 129 121 120 132 146 136 132 133 129 124 129 128 122 125 139 155 159 126 113 67 59 67 70 79 55 59 57

GFSNE_con_3kmhel_087.txt.gz
Helicity
245 261 254 254 247 200 195 160 143 127 125 197 162 139 111 92 98 106 110 236 212 183 138 135 187 169 267 354 344 294 243 220 229 216 176 115 90 60
201 207 221 214 186 166 148 150 151 138 154 194 144 105 72 55 65 75 96 119 158 137 124 141 150 166 176 132 84 89 110 110 84 73 94 41 29 29
181 192 186 154 155 136 135 139 133 132 130 140 95 61 53 42 33 42 51 67 69 99 109 101 125 138 134 138 107 89 103 115 120 91 65 44 47 58
172 174 153 139 150 136 133 136 133 112 95 94 60 55 55 41 41 52 67 79 69 93 93 106 107 99 94 83 84 92 117 145 155 117 127 116 114 140
149 140 140 134 132 124 115 101 77 57 50 55 65 57 53 42 62 65 80 82 76 81 91 107 116 121 141 146 150 162 169 169 160 160 160 155 142 131
187 181 170 157 124 113 84 60 52 58 64 64 76 73 70 72 77 98 91 96 102 98 87 97 102 106 120 132 145 163 172 168 161 147 154 138 136 141
168 164 147 136 128 84 64 68 66 69 89 82 82 96 86 90 109 96 92 87 89 93 95 88 102 99 102 115 123 130 128 116 113 114 116 126 137 140
148 137 126 110 100 101 105 122 125 96 100 105 84 95 105 97 93 101 91 93 88 81 77 72 78 75 87 95 107 109 115 114 111 112 112 113 111 104
129 115 73 52 57 58 77 87 110 125 126 95 103 116 100 102 90 77 89 79 72 69 66 70 72 67 75 73 77 73 76 82 88 99 109 92 67 54
82 57 47 51 67 59 70 76 78 94 110 112 119 112 109 79 78 74 64 60 56 70 68 70 76 71 74 67 76 66 72 94 112 127 114 89 72 70
63 62 61 55 61 76 73 65 72 78 94 105 111 105 84 73 73 67 74 76 73 84 85 85 83 74 68 75 84 110 113 116 123 100 91 76 82 80
52 58 69 81 66 74 60 59 61 75 73 69 68 64 55 81 68 65 79 82 93 84 93 100 97 100 98 94 89 94 100 85 86 73 68 67 63 81
54 53 59 64 68 65 66 73 83 79 70 62 61 69 65 74 66 88 96 94 91 90 106 105 95 96 106 100 105 105 102 102 103 110 89 71 64 69
55 64 75 66 60 53 57 76 68 77 70 63 72 81 82 86 88 93 102 96 84 84 82 106 104 114 116 98 102 127 125 107 100 98 79 63 58 55
68 75 90 65 57 56 53 59 63 73 69 82 84 94 97 113 117 92 82 77 82 78 83 100 106 97 102 113 111 109 113 134 103 105 103 92 88 84
73 70 64 69 63 62 72 64 75 75 84 95 99 112 121 109 90 93 93 91 93 92 95 102 108 115 102 104 102 102 106 116 117 108 109 105 98 98
73 84 91 87 86 83 84 81 94 100 105 103 121 120 115 113 104 94 89 94 101 100 115 124 118 111 103 94 98 110 117 116 110 103 110 105 103 106
94 95 93 96 101 98 100 105 115 101 117 125 136 132 126 126 117 111 104 103 102 112 124 131 134 134 116 100 131 128 118 117 125 113 111 116 111 125
108 101 106 118 121 121 126 133 132 134 138 145 150 144 135 130 105 122 110 108 108 112 123 139 151 157 141 117 110 119 159 149 132 121 119 129 126 109
120 116 122 134 143 144 150 149 150 149 176 164 145 143 138 140 135 122 117 127 136 133 134 140 147 155 151 138 138 109 119 149 162 136 124 121 106 45
139 129 137 153 161 167 166 168 169 168 183 201 176 164 157 148 128 122 121 95 106 140 140 147 146 117 166 163 167 134 125 72 101 153 154 117 78 69
154 160 156 167 174 188 195 199 204 205 207 214 212 215 201 146 133 135 141 150 150 150 141 149 165 178 191 194 159 116 97 98 82 62 60 93 132 110
194 197 196 189 195 205 222 226 228 229 230 226 230 243 204 148 143 146 150 159 165 168 163 148 166 176 173 181 145 147 120 95 100 90 89 60 54 74

GFSNE_con_3kmhel_090.txt.gz
Helicity
182 187 206 233 230 232 222 225 230 189 143 210 179 139 100 97 103 98 122 175 158 149 126 113 145 156 179 219 348 365 298 256 232 176 57 142 134 138
167 178 193 196 208 202 191 183 164 142 160 181 170 119 99 74 72 77 89 106 117 81 88 102 117 122 127 158 152 164 184 174 126 80 105 73 88 86
168 193 193 171 171 169 158 146 146 147 155 174 138 91 73 57 34 41 56 66 80 84 83 85 103 110 114 115 114 107 84 92 102 116 134 102 60 98
200 219 203 200 210 167 139 143 126 116 130 130 90 63 47 26 23 38 57 75 77 87 105 117 111 99 95 100 104 101 104 112 114 118 147 151 122 124
181 176 165 163 164 158 136 121 108 105 86 72 67 51 47 36 46 55 63 66 62 95 104 114 116 117 129 121 146 138 120 107 117 154 176 178 165 146
228 245 219 185 153 136 128 113 82 62 66 78 71 66 67 54 81 91 95 90 95 98 88 85 94 99 104 108 114 119 119 122 129 129 143 146 140 126
198 187 173 171 160 132 112 92 63 70 83 97 73 84 84 92 92 85 98 84 98 88 85 85 85 83 85 107 113 110 102 94 91 89 93 104 116 134
176 185 180 178 156 131 98 112 98 75 94 99 85 80 81 81 93 86 90 96 85 80 78 60 67 75 73 76 85 84 85 83 81 86 88 89 100 114
148 142 125 107 88 74 90 111 111 130 126 90 98 96 93 81 85 92 88 82 77 49 63 71 61 70 55 64 70 64 61 63 64 72 90 91 81 71
108 87 82 66 61 60 72 84 106 122 138 129 114 108 101 88 82 76 68 68 64 65 61 74 62 59 56 68 71 65 71 75 85 104 106 92 99 82
99 82 63 54 50 75 74 76 86 87 102 107 108 101 98 90 94 84 88 87 78 75 77 78 75 64 61 67 71 81 82 90 93 94 88 85 77 74
67 63 79 53 51 67 68 61 71 60 71 78 78 83 85 86 97 89 78 83 77 81 75 90 87 89 93 84 80 75 79 81 85 84 79 76 70 86
59 60 55 52 57 68 86 84 68 72 72 73 72 69 74 73 76 87 86 86 90 87 90 89 89 85 105 100 96 81 82 91 92 93 91 81 70 74
55 56 52 52 62 68 85 79 78 99 80 71 73 72 73 73 90 104 99 95 93 81 81 91 92 102 112 104 102 100 84 75 89 86 87 77 69 68
61 59 59 57 54 60 56 65 70 88 80 86 81 81 90 100 122 112 74 76 84 82 79 87 106 91 111 119 104 95 89 113 83 102 119 107 98 92
61 71 68 65 60 60 65 66 84 79 81 89 88 88 130 123 103 87 97 96 91 89 78 82 93 122 121 113 89 87 98 100 105 108 107 97 97 91
70 81 89 91 80 80 86 84 84 83 101 108 115 125 131 123 100 82 99 98 94 96 93 90 98 115 119 114 99 107 101 115 125 113 105 106 98 102
90 107 102 96 94 95 98 95 103 101 124 127 120 129 133 129 109 101 118 120 104 96 93 96 116 133 120 89 78 111 115 111 127 107 109 111 93 124
112 119 111 108 109 117 117 126 131 127 137 146 147 144 142 144 117 131 118 124 127 126 111 102 116 138 127 109 109 79 146 162 150 130 127 140 126 98
138 138 126 124 127 134 139 140 139 152 161 165 173 169 171 170 175 167 133 116 118 131 123 125 142 164 152 146 122 109 113 134 145 129 127 145 130 48
142 163 160 148 149 158 163 163 154 155 174 195 187 197 196 210 195 180 122 67 85 121 124 153 165 106 144 172 155 125 139 94 102 135 146 155 116 87
167 164 166 168 175 191 196 189 188 170 183 206 209 223 236 235 214 192 162 129 110 125 147 150 137 187 210 177 139 121 103 109 113 90 71 72 141 119
193 201 196 209 211 215 227 220 211 211 226 244 251 242 250 248 228 206 175 129 134 149 157 154 180 193 176 176 136 139 129 123 128 129 142 107 60 36

GFSNE_con_3kmhel_093.txt.gz
Helicity
164 166 171 188 204 208 212 235 242 227 219 256 194 153 102 92 103 95 104 123 108 103 81 85 110 115 136 223 351 387 298 231 236 233 210 163 137 118
159 155 168 180 192 197 213 213 212 207 235 191 172 132 103 81 85 76 76 73 80 68 67 66 70 94 105 135 180 216 237 215 176 121 103 103 77 73
160 150 161 171 179 184 177 184 172 184 186 189 172 140 100 87 72 69 60 60 59 65 50 63 75 67 76 112 141 137 164 160 140 131 95 71 77 84
194 190 196 198 202 188 157 155 153 157 168 189 164 124 78 68 54 51 56 63 66 75 85 99 94 80 78 95 120 135 122 120 101 98 106 103 111 110
176 166 163 178 182 173 159 150 135 130 127 133 120 79 63 58 61 61 73 77 67 77 86 87 96 113 113 114 132 143 156 153 143 141 144 140 135 118
205 196 183 162 165 158 153 141 133 125 115 110 89 83 77 73 83 85 95 94 75 77 79 84 89 95 96 96 103 110 112 111 105 95 97 98 99 97
197 189 183 150 129 117 132 124 105 103 92 99 89 88 97 96 92 89 95 82 83 80 67 67 65 70 76 82 80 82 83 83 81 75 71 75 83 90
179 182 187 201 165 158 142 122 88 64 81 84 82 92 94 99 96 88 88 88 68 74 69 56 63 56 50 45 58 64 66 69 67 68 69 68 62 82
136 150 157 144 152 141 144 114 115 111 79 75 93 85 91 72 89 88 80 78 68 59 63 66 64 61 57 46 57 51 47 48 51 58 66 68 65 55
111 116 114 109 85 80 78 85 97 97 103 105 103 87 87 78 72 71 71 76 78 72 60 69 66 62 61 61 55 60 67 57 71 86 85 77 74 83
117 93 86 84 62 48 62 77 86 100 102 107 97 92 83 81 75 84 75 81 76 61 69 70 71 67 69 73 72 83 86 97 91 81 76 74 67 58
95 90 64 50 51 43 58 65 74 68 78 93 97 95 95 78 84 64 63 80 71 78 63 81 77 82 87 79 85 92 94 92 110 88 84 74 71 76
74 67 67 45 40 40 57 60 58 67 58 71 74 79 82 78 76 75 70 74 79 75 74 87 90 88 95 92 89 95 113 125 109 106 104 96 80 64
64 54 46 32 34 44 64 60 68 75 80 78 80 72 69 65 70 73 79 80 77 79 85 96 91 98 100 93 101 113 91 86 101 106 95 80 74 77
51 41 31 34 36 43 49 55 57 82 80 91 80 79 72 77 98 96 88 71 72 78 89 91 95 91 100 103 95 112 121 128 83 115 123 103 98 87
33 28 52 55 53 56 55 52 78 77 87 89 86 88 120 129 110 102 105 87 91 72 64 77 84 94 90 84 101 115 127 121 127 105 97 97 89 84
66 79 79 82 81 77 73 67 81 85 92 98 111 119 124 125 108 106 106 111 111 88 79 85 78 88 95 100 100 118 106 94 125 130 109 94 107 107
82 94 89 95 93 87 87 89 95 86 104 119 125 128 138 138 129 123 127 137 132 88 79 83 90 99 90 79 82 106 100 99 124 120 104 98 91 118
79 104 92 100 102 105 108 113 112 116 133 129 130 131 133 136 115 151 144 143 146 105 81 86 102 109 107 97 99 92 135 114 124 118 129 128 89 80
111 123 118 123 118 113 115 118 124 135 137 137 142 143 144 154 166 164 172 155 145 129 105 113 123 118 114 115 92 116 125 131 145 130 137 137 112 44
113 133 148 146 137 136 134 146 148 151 161 169 158 163 174 186 175 166 173 130 137 160 107 115 107 62 122 139 107 132 146 88 113 156 141 116 97 106
170 170 171 177 162 142 143 152 149 146 167 191 197 206 206 211 188 184 192 180 156 160 134 117 106 117 152 170 129 119 118 131 97 71 63 88 144 130
153 168 169 169 173 178 183 191 199 199 211 213 205 209 224 228 212 205 192 188 181 182 151 101 110 135 149 170 135 132 119 123 136 143 138 111 94 66

GFSNE_con_3kmhel_096.txt.gz
Helicity
162 171 180 179 185 192 210 245 223 269 298 260 288 206 151 121 130 107 102 99 101 111 103 91 100 122 158 225 243 275 332 351 280 252 243 237 203 154
161 154 166 173 179 190 202 220 217 221 267 271 240 206 110 103 106 101 87 85 91 81 62 82 73 88 122 176 210 242 250 228 129 123 191 197 134 105
153 141 140 156 167 167 176 189 199 205 232 256 228 179 141 111 101 96 73 71 73 77 71 84 71 61 59 99 129 139 144 173 172 146 119 99 96 92
152 160 150 161 170 189 185 180 169 188 196 203 194 175 144 117 109 79 68 73 80 85 93 101 99 84 73 80 102 110 114 130 125 129 126 109 110 102
157 154 150 161 163 160 163 165 169 164 175 179 182 170 142 99 90 77 83 96 97 109 110 109 105 106 121 127 124 127 120 116 138 149 164 166 140 116
157 156 156 145 142 135 136 144 154 155 152 164 157 134 97 87 85 84 93 100 91 91 100 107 98 95 86 91 100 105 110 118 122 118 115 117 114 102
155 159 155 144 129 128 142 126 134 139 135 154 141 106 90 100 89 88 91 85 86 81 72 78 68 67 75 74 72 70 69 68 74 75 77 79 80 80
140 158 163 165 142 133 130 107 97 111 117 135 102 91 88 88 104 94 101 88 70 74 73 66 62 63 55 50 53 57 55 56 61 67 70 71 71 80
140 149 157 154 171 186 179 192 150 109 67 75 74 69 88 73 98 101 86 92 82 70 66 71 65 62 56 53 59 60 46 52 61 73 86 95 91 76
125 116 122 124 121 123 124 135 120 102 81 69 75 77 75 84 78 72 83 107 106 83 67 75 66 61 60 65 70 69 68 56 73 93 96 99 93 94
110 97 91 92 71 73 91 97 88 98 90 97 99 91 85 82 81 117 111 113 85 68 77 74 73 71 72 78 85 88 83 89 85 89 95 93 91 76
100 87 62 62 45 41 63 63 68 62 78 99 117 123 113 82 74 74 77 85 83 84 57 83 83 80 91 93 97 98 95 109 114 111 115 102 87 96
84 77 66 31 36 25 33 49 41 52 57 81 86 91 95 88 89 83 63 72 86 74 57 86 87 98 110 102 97 98 111 109 103 107 102 97 98 90
71 61 51 27 26 22 35 24 22 68 91 89 87 80 78 77 68 71 81 83 72 63 81 95 90 105 121 125 118 125 103 83 101 111 108 98 98 82
66 50 35 18 18 29 21 32 66 95 95 100 87 82 79 71 93 103 104 97 84 69 82 86 95 105 118 115 121 115 108 107 78 108 126 122 106 96
73 86 45 24 23 24 43 59 90 94 92 98 96 92 100 107 108 109 117 110 106 84 64 62 74 107 102 99 104 114 117 130 136 130 92 81 91 79
87 63 68 64 20 44 68 62 77 87 98 101 109 116 114 121 120 126 134 136 124 101 88 96 69 79 92 107 106 116 126 107 114 129 106 86 109 97
88 79 50 57 71 85 87 85 92 82 105 118 122 120 126 127 124 138 149 147 141 123 113 93 87 103 97 77 74 110 102 89 104 122 119 97 101 119
66 85 63 76 92 99 102 110 101 108 134 128 127 127 142 140 116 135 147 145 145 160 114 123 116 119 109 117 99 54 106 109 133 132 120 107 74 91
101 127 109 116 113 117 119 120 117 130 127 128 135 139 149 152 151 145 153 161 178 176 147 144 138 134 130 122 88 95 69 114 134 127 137 131 90 26
110 132 151 155 156 150 141 136 135 139 149 154 150 158 164 175 156 168 189 159 150 174 139 147 144 110 144 141 99 121 105 58 118 146 134 124 102 100
167 167 186 206 230 222 194 173 159 150 162 169 160 171 184 209 205 191 190 184 171 172 155 173 195 199 182 133 96 104 119 129 92 71 77 121 171 133
134 139 145 166 180 184 193 185 174 174 195 214 228 218 228 228 206 187 194 195 197 197 185 190 215 222 182 161 101 98 103 120 148 147 142 85 58 44

GFSNE_con_3kmhel_099.txt.gz
Helicity
97 122 146 155 154 166 178 184 179 204 232 246 287 257 226 208 163 152 117 137 109 108 124 90 95 113 136 166 208 245 225 201 276 267 276 302 276 151
95 109 140 143 142 157 163 174 182 211 191 258 251 240 214 183 181 106 115 126 107 79 62 58 73 83 107 155 225 261 281 234 279 308 234 199 115 199
94 113 116 137 148 150 168 188 191 189 194 259 289 254 221 175 101 105 129 110 85 77 63 57 58 70 88 106 148 188 180 173 151 173 173 114 125 155
122 147 140 151 145 173 168 168 180 185 196 214 235 220 185 141 137 128 133 101 88 73 79 88 83 78 43 82 117 124 131 118 139 128 126 115 122 94
142 132 135 142 138 151 161 162 158 154 188 197 200 208 190 161 150 137 110 95 108 101 113 105 107 108 124 119 121 136 124 135 150 163 163 155 161 181
133 137 133 122 116 129 128 137 152 150 166 183 186 189 167 142 126 106 97 91 91 92 113 113 120 121 102 121 138 144 136 142 132 137 139 142 146 134
126 125 120 121 113 101 125 133 152 162 164 168 163 152 138 124 99 93 98 94 87 85 73 87 84 81 97 100 97 97 97 103 97 98 105 108 106 101
114 128 129 124 121 103 105 111 121 127 132 137 132 112 97 95 110 102 109 114 67 70 72 74 74 69 76 75 73 80 76 76 74 71 71 72 79 97
121 113 120 126 141 163 178 199 165 129 100 99 111 84 83 70 104 115 102 97 78 64 74 70 78 71 72 69 67 72 58 67 71 73 83 91 93 88
114 118 115 110 121 129 139 154 138 128 110 93 63 51 59 78 85 86 92 109 108 86 71 79 75 71 70 67 85 85 66 66 73 71 82 94 101 111
118 115 105 96 80 90 110 111 108 105 80 78 73 82 66 83 91 131 121 123 88 65 74 78 74 77 70 77 100 94 93 93 89 88 83 88 96 106
119 106 74 82 67 65 83 72 84 59 59 81 110 137 111 89 80 72 91 108 82 82 60 85 85 79 84 92 101 103 101 114 118 107 105 98 88 109
103 96 83 53 55 45 48 50 35 42 31 55 80 96 111 110 96 84 79 76 83 69 54 84 81 90 100 88 96 103 101 103 101 102 101 91 94 95
108 87 67 38 32 33 32 24 6 46 70 63 65 78 93 93 92 95 97 90 81 63 77 91 83 95 108 99 102 125 117 101 93 97 92 89 95 99
88 62 43 43 56 27 22 29 21 80 57 82 62 85 93 86 104 115 115 103 97 87 84 87 93 101 110 95 101 121 133 114 87 75 95 125 125 108
83 71 76 85 45 46 24 29 62 57 69 60 85 103 106 113 115 115 116 106 105 97 78 74 92 106 96 97 119 112 114 119 104 107 107 88 76 82
104 102 71 84 107 77 42 40 57 42 48 94 104 103 112 118 118 128 134 131 119 110 105 105 88 86 102 117 109 113 121 110 101 88 94 76 82 88
90 83 71 70 59 61 40 41 55 58 90 104 110 121 119 125 128 148 154 140 137 136 131 125 141 132 108 69 83 123 116 113 102 92 101 93 85 111
70 87 70 76 53 43 54 81 87 91 114 109 116 119 122 128 115 145 156 156 139 147 142 148 164 165 110 97 82 48 99 104 109 101 89 90 92 112
116 129 134 111 111 110 117 118 112 126 121 118 123 132 147 156 164 157 163 159 158 166 172 179 174 179 138 118 86 90 61 113 116 105 100 88 73 30
128 145 159 155 157 157 151 149 142 143 155 155 148 154 166 183 158 158 160 130 143 194 187 162 154 156 196 187 128 122 107 81 107 130 109 110 93 84
134 127 141 177 192 201 193 189 182 169 162 162 150 162 176 203 205 200 214 215 210 214 185 174 243 247 250 195 133 131 137 143 89 46 65 95 147 129
158 164 142 135 140 156 164 157 168 176 207 214 235 249 264 269 254 237 232 227 217 217 194 202 233 267 227 200 137 131 149 149 160 153 117 57 49 53

GFSNE_con_3kmhel_102.txt.gz
Helicity
135 101 94 107 116 127 119 149 184 145 161 185 229 202 217 235 182 205 160 167 113 116 119 113 99 87 94 143 162 188 113 76 122 184 166 182 236 221
109 119 112 113 120 109 106 102 175 177 168 218 213 196 212 221 188 175 131 117 101 99 83 80 72 73 76 128 213 283 310 303 273 284 269 261 233 245
119 106 91 107 117 109 122 142 162 174 186 203 208 227 224 242 210 179 163 111 132 120 78 63 57 62 62 92 137 197 224 259 270 235 254 264 202 184
140 90 71 120 123 139 148 148 159 171 180 186 186 209 207 190 171 154 129 125 138 98 81 74 78 72 40 50 105 110 153 160 161 161 173 156 192 163
86 101 105 122 129 137 141 145 150 160 170 188 189 209 200 197 198 160 140 144 134 102 92 104 94 93 82 46 108 117 144 152 159 183 201 216 223 210
97 105 126 133 113 122 117 115 126 135 149 177 201 201 191 169 170 149 129 118 90 81 96 116 129 124 106 112 114 109 122 124 126 127 149 143 145 145
125 130 128 119 108 100 112 107 120 135 152 185 180 179 170 157 140 134 114 89 71 71 70 92 90 88 92 115 96 97 111 117 124 130 133 138 132 119
95 114 132 133 130 117 105 88 110 144 149 154 156 139 127 121 125 113 115 109 68 63 77 77 79 77 79 88 74 80 88 85 86 89 96 99 100 106
110 119 120 128 133 135 141 169 183 162 114 116 112 113 90 88 117 113 102 99 84 56 71 70 77 76 75 72 68 70 69 73 77 81 93 89 89 93
119 118 120 125 123 123 124 133 138 137 124 105 88 73 67 43 82 75 101 103 98 82 76 69 77 72 74 63 80 74 53 66 71 83 92 92 95 95
116 123 116 112 104 94 115 119 122 119 116 103 91 65 49 49 67 125 123 122 82 64 72 69 70 76 67 70 96 82 80 82 91 97 91 89 92 96
103 114 93 89 78 67 97 93 106 97 102 96 97 110 90 73 60 64 89 109 85 75 60 72 73 69 70 76 84 90 91 99 109 99 106 91 89 101
99 109 97 82 74 67 88 74 61 65 65 64 60 72 89 86 71 76 79 93 94 76 48 79 73 76 81 67 69 82 87 92 104 114 108 99 91 86
107 111 93 67 64 59 62 45 35 51 55 53 55 34 52 70 68 99 99 93 80 62 59 82 74 80 88 76 65 77 90 99 107 112 104 95 82 80
104 90 77 59 52 59 60 62 39 81 63 72 78 53 53 65 98 119 118 107 108 104 90 84 89 90 90 86 80 75 97 101 107 99 88 95 110 114
91 87 74 54 56 75 92 63 61 62 57 62 51 58 75 90 100 95 84 96 110 100 92 82 90 99 104 90 91 83 96 119 106 100 100 105 97 88
116 107 88 70 75 96 108 84 50 49 53 62 56 95 58 103 91 93 110 128 113 103 107 101 88 83 90 104 87 61 84 92 96 91 93 84 65 58
109 98 83 66 74 76 73 46 43 21 62 70 68 69 73 80 92 127 139 125 130 130 124 119 139 136 122 93 75 89 85 81 99 95 91 89 82 86
104 111 100 98 80 75 70 66 47 45 77 68 73 83 104 123 114 139 139 145 139 137 133 150 158 166 149 129 125 65 88 78 107 100 95 94 101 116
124 146 144 143 120 106 97 82 85 96 94 101 110 117 131 143 165 158 162 154 148 165 168 174 174 189 183 187 134 121 83 103 106 113 120 108 83 40
107 129 156 160 159 155 137 132 125 126 137 139 136 141 148 161 155 158 155 122 133 170 155 157 166 156 260 256 152 130 138 82 117 135 110 117 101 85
125 110 114 127 137 152 154 150 142 132 142 154 150 152 153 162 169 173 186 198 202 214 201 200 237 282 309 244 141 145 145 165 79 41 67 87 123 92
115 127 132 132 137 132 145 157 158 160 178 172 185 187 192 198 193 202 225 258 266 252 213 205 253 278 242 216 148 155 158 168 180 163 123 54 43 36

GFSNE_con_3kmhel_105.txt.gz
Helicity
176 137 156 152 123 124 117 117 118 134 113 118 132 150 191 192 166 187 200 194 157 87 76 105 102 98 93 124 207 187 39 47 51 112 142 123 113 155
164 163 167 135 126 130 136 125 122 141 179 163 138 164 160 169 187 204 196 179 119 58 50 83 92 93 87 119 216 299 252 99 121 132 158 197 263 228
163 172 165 146 149 164 150 128 133 152 163 177 186 185 174 180 200 208 190 186 132 80 78 82 77 65 83 102 143 265 336 420 323 273 240 214 215 206
191 195 192 175 137 137 142 139 138 156 172 169 175 195 183 179 184 195 186 179 143 103 105 81 65 66 66 74 96 155 213 229 244 275 288 209 199 201
157 136 102 108 117 114 119 123 147 162 167 181 181 184 190 205 222 199 181 172 166 149 161 120 70 69 65 28 92 110 146 103 124 162 220 199 177 199
73 85 100 112 119 122 118 121 130 140 145 161 174 181 185 181 194 180 155 135 117 107 109 114 124 116 103 103 120 140 140 144 116 130 156 180 192 184
96 110 114 121 118 116 118 119 119 123 134 151 177 180 168 167 150 143 147 122 104 73 63 81 81 85 88 93 98 106 101 92 80 94 106 119 132 127
84 99 119 137 132 131 123 99 101 110 136 154 162 154 139 135 139 137 144 125 81 57 63 71 73 77 76 78 71 86 84 83 85 86 91 100 104 116
75 102 121 130 132 127 138 152 153 153 133 133 131 128 126 111 130 122 103 92 77 50 72 75 65 64 71 70 74 67 62 73 71 70 74 74 84 94
93 105 109 120 128 123 115 121 127 141 137 118 101 95 84 84 80 86 77 91 101 73 63 68 68 64 65 58 85 67 56 62 63 73 88 99 91 85
98 106 112 110 104 104 116 116 113 114 116 105 94 87 76 68 76 91 91 92 84 70 60 64 59 66 59 60 87 88 58 69 79 68 79 81 81 94
88 104 106 98 87 78 98 94 103 88 80 91 91 123 108 67 65 55 65 83 76 47 47 68 67 68 56 62 75 88 92 67 62 68 70 72 84 90
90 106 107 89 78 71 83 81 71 79 78 82 79 71 72 54 62 61 54 48 56 72 51 87 63 65 64 55 57 57 61 70 80 95 96 92 81 81
79 99 95 76 69 66 77 61 53 71 65 80 84 71 57 47 62 64 64 67 72 81 68 65 80 65 64 56 46 54 55 63 69 74 84 87 75 61
81 69 67 66 66 61 50 45 54 79 89 86 91 54 37 46 59 75 90 99 119 98 75 72 91 101 70 56 55 65 74 57 67 78 85 85 89 95
69 63 68 69 59 56 53 63 80 81 75 73 64 62 65 63 66 68 65 94 91 75 76 98 91 84 91 81 83 85 78 78 70 79 80 89 97 94
101 108 103 89 74 72 74 76 82 72 79 61 60 61 53 57 67 76 98 97 73 75 91 93 84 86 87 88 91 81 78 74 73 104 92 82 77 75
110 102 88 79 73 67 67 72 73 68 56 51 59 65 56 57 77 90 94 79 81 86 106 100 107 111 102 76 74 95 93 88 77 85 90 79 78 71
102 97 89 85 75 69 66 62 60 57 56 41 38 48 54 64 68 71 90 89 100 105 104 122 131 134 117 111 126 67 106 116 102 80 85 81 89 97
108 108 106 97 94 87 84 83 77 67 62 61 69 74 72 68 74 87 111 122 116 124 130 142 153 146 152 153 153 138 83 144 140 89 88 67 59 51
93 91 96 102 99 100 95 94 94 95 99 99 96 100 108 117 110 119 122 104 115 137 134 140 154 114 174 204 179 146 158 95 131 117 116 93 88 91
117 108 107 107 104 103 106 107 96 94 103 109 110 129 147 165 146 141 146 160 178 181 163 148 186 210 250 221 170 159 175 175 109 83 109 98 125 98
111 101 95 94 98 101 102 102 98 100 110 115 120 128 147 154 144 137 132 138 143 161 164 158 202 256 252 234 166 162 149 147 158 145 136 67 55 31

GFSNE_con_3kmhel_108.txt.gz
Helicity
137 153 150 134 124 130 131 127 118 161 116 115 115 154 155 164 178 179 186 173 139 153 121 76 43 72 79 103 132 176 105 37 29 38 28 76 84 163
171 151 136 131 134 143 138 127 132 139 182 192 175 164 150 148 184 166 175 174 151 121 89 52 51 92 96 120 160 246 214 44 37 53 83 118 114 155
152 155 146 139 149 159 158 177 165 159 161 202 187 170 161 163 172 169 175 194 177 121 77 43 67 89 101 113 113 215 287 214 59 99 125 184 257 230
158 158 149 146 145 149 145 132 146 178 180 144 169 166 170 164 171 196 192 214 189 141 72 54 75 78 75 84 80 171 279 377 476 359 276 235 214 159
174 152 145 131 122 136 145 150 147 155 161 166 169 176 186 191 201 204 193 200 182 156 144 129 96 83 61 47 43 96 130 259 335 408 261 220 215 180
147 118 111 115 130 131 128 121 128 128 135 140 163 180 175 169 178 179 168 159 134 121 123 116 102 101 83 91 68 104 173 158 188 201 241 277 218 172
100 89 97 132 150 142 126 120 121 112 113 125 157 179 171 168 156 168 174 151 110 91 77 75 57 50 66 78 91 103 114 138 104 113 97 113 148 167
67 89 113 122 139 143 156 147 128 112 113 136 150 158 153 149 149 160 175 156 119 79 61 60 52 49 59 72 87 95 105 103 102 86 86 111 126 135
85 92 112 137 143 144 154 146 142 133 124 117 120 119 134 128 151 138 134 136 120 81 44 51 52 55 54 57 81 75 77 87 82 85 91 96 101 114
67 85 101 124 137 137 118 111 112 123 132 111 99 100 97 106 114 103 114 138 110 68 66 50 54 57 62 60 71 61 54 64 67 72 65 74 94 88
58 94 117 124 119 105 101 102 108 108 115 127 108 87 79 83 79 95 119 110 70 42 53 59 56 61 59 53 61 81 42 51 57 63 75 85 85 86
65 86 103 103 93 80 90 105 100 95 87 84 88 104 95 105 95 68 63 66 59 51 54 74 52 46 56 51 60 76 80 75 86 74 70 67 71 78
61 68 96 90 83 81 77 92 102 90 83 72 77 80 89 85 84 66 59 51 54 51 29 58 60 62 102 89 56 63 64 68 74 94 92 68 61 77
61 77 105 104 91 89 84 87 82 84 72 65 68 70 81 70 59 63 64 70 69 44 32 76 68 71 93 103 65 53 46 55 64 63 66 67 67 62
76 83 104 97 88 86 85 72 65 72 67 76 70 70 64 68 61 60 63 71 84 83 85 83 79 78 91 60 69 76 70 42 53 60 58 65 71 79
65 73 81 79 82 85 77 63 62 62 67 71 75 67 61 56 47 55 69 72 87 82 101 99 79 75 77 69 66 58 52 54 56 67 65 67 75 79
93 102 101 94 80 74 67 60 65 63 74 74 78 78 65 71 71 69 86 80 90 76 89 78 75 85 85 87 79 78 81 86 89 84 76 66 64 74
104 108 96 82 70 69 67 63 62 65 66 69 67 61 49 54 66 74 83 85 80 81 70 70 82 91 84 62 71 95 88 90 96 87 79 74 50 78
73 79 85 73 76 74 70 67 63 55 70 71 67 63 64 70 67 64 76 80 69 75 77 98 98 103 90 100 105 40 113 112 118 105 106 103 84 91
86 75 70 71 71 73 75 75 75 76 69 74 87 88 82 85 90 84 95 97 74 84 92 117 123 128 115 129 143 132 70 134 132 129 136 131 96 61
97 93 81 78 78 80 77 76 76 82 89 95 96 104 104 103 90 85 89 83 82 99 99 121 144 94 176 182 136 113 121 66 108 182 202 155 122 78
118 99 105 103 98 98 94 94 93 87 89 97 101 111 119 124 124 123 131 132 127 128 136 148 162 176 190 187 159 137 145 164 127 97 135 178 161 78
105 104 109 110 109 98 96 99 95 90 91 101 108 113 123 129 119 116 121 125 131 137 130 138 164 188 213 203 145 133 129 148 168 184 181 114 77 46

GFSNE_con_3kmhel_111.txt.gz
Helicity
185 161 150 109 127 135 135 137 164 231 183 158 227 198 175 182 184 166 184 196 177 160 168 133 119 65 48 79 87 94 98 85 27 16 -7 20 57 81
166 138 125 151 148 141 137 140 159 171 219 258 235 195 164 158 163 169 172 172 166 152 138 135 117 59 79 96 105 97 158 144 22 36 40 4 68 109
187 134 150 155 151 139 140 147 154 204 157 163 196 205 175 162 173 166 161 161 162 157 128 117 75 54 74 89 97 121 226 179 38 30 31 54 91 251
173 166 164 182 149 157 162 137 128 143 181 144 209 172 173 183 181 166 157 182 193 196 145 99 70 61 75 63 73 118 219 335 230 114 125 181 219 181
172 166 168 153 126 116 122 136 154 147 159 171 157 177 173 172 174 170 158 179 186 189 186 151 91 87 82 62 62 119 174 300 483 462 395 321 256 201
163 149 139 127 132 156 149 147 152 143 144 146 144 168 160 170 172 161 152 154 150 146 137 118 83 81 76 69 53 88 110 214 284 316 277 274 223 220
141 136 142 173 173 176 147 122 122 124 132 154 124 150 157 170 161 159 160 144 117 112 99 74 57 65 57 52 47 45 47 86 117 96 131 128 201 210
137 127 121 112 103 122 137 136 162 151 128 132 132 128 151 147 158 158 165 152 122 98 99 76 63 60 52 54 54 52 55 98 122 125 175 153 194 168
125 98 93 101 106 112 137 144 147 140 133 135 107 123 129 126 155 145 142 139 122 93 64 77 40 45 35 39 59 59 68 105 113 107 107 112 113 113
84 73 68 84 119 136 126 139 124 124 124 108 100 102 100 106 117 114 124 131 117 93 65 74 35 34 35 37 43 33 54 74 89 115 109 104 112 118
79 74 93 118 130 134 128 118 109 110 108 115 97 82 83 84 100 148 140 143 108 78 48 56 28 47 32 29 41 54 52 63 74 81 91 85 92 94
78 83 84 97 124 118 118 102 97 99 96 87 80 90 93 111 114 82 96 100 101 82 39 66 77 64 63 50 46 39 53 71 55 57 78 72 72 87
86 79 85 64 80 88 91 104 111 131 106 94 91 88 84 90 104 113 108 79 104 72 43 74 64 74 66 65 69 61 62 53 71 78 66 57 60 89
82 68 75 63 76 87 99 101 117 115 106 96 91 85 83 86 87 101 98 94 78 52 42 63 46 59 92 105 108 52 74 77 76 72 79 64 60 55
79 73 93 80 85 86 78 105 100 102 96 100 92 96 81 92 79 71 78 70 77 86 88 75 67 67 83 101 71 65 91 67 71 69 55 57 62 62
61 81 85 82 96 98 106 92 90 85 90 91 86 87 99 74 67 63 72 60 75 73 64 67 71 82 90 81 104 76 53 37 64 64 60 58 55 50
104 116 106 109 111 97 90 78 83 89 92 78 100 101 88 86 75 67 64 70 82 78 100 81 84 94 90 82 74 77 85 82 96 94 91 67 63 65
170 136 106 109 91 87 85 82 86 81 86 92 95 86 90 96 85 86 77 87 107 93 78 79 87 86 68 58 71 94 89 103 125 121 115 100 81 79
137 118 105 99 89 85 92 92 94 94 82 98 93 88 89 86 69 74 70 68 77 94 99 98 95 91 87 87 81 33 115 123 141 128 121 123 121 99
114 106 95 88 87 95 96 95 96 100 109 99 91 87 90 90 97 95 105 110 105 96 98 112 124 105 105 112 107 97 67 135 139 132 136 125 117 98
119 104 119 112 95 104 106 105 102 100 102 109 100 108 108 106 91 94 106 87 90 117 120 133 152 103 152 148 115 115 135 59 111 165 159 171 170 144
126 117 121 115 114 112 107 102 112 105 108 106 104 111 115 121 116 120 123 126 126 131 121 133 155 166 171 150 139 146 169 171 89 69 107 161 177 135
127 127 125 124 119 111 113 120 118 107 101 102 104 105 113 115 118 119 121 126 130 132 135 138 177 207 186 158 112 121 136 175 212 200 148 82 74 93

GFSNE_con_3kmhel_114.txt.gz
Helicity
213 227 205 157 130 133 135 149 166 148 135 163 206 241 180 135 127 127 137 150 147 153 156 158 154 135 116 51 44 61 42 36 57 18 -2 -5 12 23
215 182 159 165 160 140 139 147 150 184 194 190 225 190 179 153 133 125 149 146 142 127 128 139 141 134 85 25 57 75 75 106 67 2 13 20 18 24
189 184 166 171 128 143 145 157 174 176 164 149 148 169 165 143 127 137 140 153 152 142 119 118 134 121 42 10 60 87 92 200 104 -2 4 33 32 38
203 198 167 148 177 167 173 156 140 152 170 136 132 138 150 148 137 159 162 164 166 179 141 115 125 85 29 30 86 115 119 242 204 145 13 37 77 79
202 152 164 159 161 171 164 159 159 180 159 133 122 137 137 143 143 144 145 150 156 156 169 158 117 70 44 50 90 125 144 198 353 318 296 266 295 279
182 172 169 158 148 156 169 159 154 154 139 119 124 126 114 126 133 126 132 136 135 138 131 117 81 63 47 54 82 106 124 167 283 334 348 358 309 204
166 173 186 188 198 189 174 163 145 150 139 146 153 154 140 130 129 126 137 135 124 123 116 90 65 62 46 55 54 76 70 127 162 247 237 248 313 351
158 170 166 162 159 159 170 175 161 149 121 138 133 110 92 115 123 141 148 137 118 119 112 88 79 66 39 29 39 53 58 42 90 112 143 131 184 134
156 140 124 126 124 126 129 136 140 142 127 129 98 97 98 100 128 138 132 132 124 102 81 86 67 56 17 14 14 29 50 55 58 101 155 131 160 184
135 118 108 100 92 110 107 113 114 119 117 105 82 76 85 101 110 104 109 123 114 94 78 85 53 34 13 3 18 31 35 51 73 112 149 157 178 171
135 131 120 113 77 94 118 114 115 114 123 128 102 76 73 83 101 137 126 144 108 89 71 68 41 37 8 9 9 33 43 51 68 74 77 118 131 142
140 126 109 88 77 80 103 103 110 94 112 107 91 85 103 110 89 100 102 111 103 93 55 77 61 41 18 31 32 37 53 66 71 76 79 85 100 116
123 107 88 54 54 53 73 104 98 107 97 102 100 104 100 111 117 120 105 84 76 78 33 58 45 64 56 67 41 34 38 47 71 67 50 55 68 86
124 90 61 25 35 55 79 84 102 115 116 111 105 97 88 94 99 102 100 93 65 46 45 66 41 56 61 46 59 67 50 62 72 79 71 67 50 53
133 99 73 58 51 61 77 86 90 103 97 107 95 88 92 91 89 89 90 80 77 72 66 48 36 30 35 55 73 75 58 49 55 81 79 81 63 63
127 118 96 86 63 64 102 89 108 96 87 90 80 79 103 94 87 73 78 69 73 58 52 42 40 45 64 61 82 78 55 51 56 82 74 74 55 42
142 135 130 104 90 91 105 95 85 81 91 90 93 118 99 91 87 77 76 71 67 67 58 46 52 61 58 58 65 71 65 64 59 58 65 56 47 43
183 148 113 109 97 95 94 78 82 82 96 90 88 108 107 99 92 94 90 79 73 72 88 86 101 116 76 48 63 92 87 87 100 84 90 59 38 58
153 132 136 134 112 97 86 95 95 94 91 99 99 92 90 86 66 94 84 78 80 85 102 139 109 84 93 94 54 32 85 100 117 104 103 101 83 81
175 146 119 116 101 92 91 96 100 108 113 107 110 104 95 106 97 94 96 94 87 98 95 130 162 120 126 71 51 63 42 111 125 125 120 113 86 59
142 113 119 108 91 88 95 100 100 108 114 122 114 116 108 116 102 106 100 58 69 110 103 115 123 93 148 133 102 111 120 50 113 137 106 122 120 107
120 121 129 122 101 103 100 102 119 104 107 107 103 107 111 117 111 108 111 112 94 122 125 145 126 150 176 135 108 119 136 135 81 62 99 148 152 116
137 133 137 136 138 136 128 122 114 114 117 117 103 92 95 99 102 103 103 107 113 114 118 128 148 167 143 150 103 111 117 115 138 176 152 68 79 100

GFSNE_con_3kmhel_120.txt.gz
Helicity
162 125 173 175 123 118 137 199 162 122 107 135 151 161 170 161 143 122 99 82 76 81 103 113 122 116 95 74 62 35 -2 -5 20 32 32 5 -0 8
210 223 163 140 82 133 151 144 152 148 148 153 146 149 152 161 129 110 82 93 92 89 83 91 93 102 88 73 57 24 11 48 53 77 88 29 5 13
265 203 201 167 140 147 150 159 161 163 171 154 166 177 161 127 109 94 84 111 118 134 97 98 101 99 85 76 59 18 66 69 75 125 94 33 23 47
91 149 132 119 157 164 158 157 156 160 141 151 166 169 147 126 120 91 85 107 111 128 142 103 117 102 82 76 44 57 86 89 109 221 109 29 44 38
76 166 161 175 172 166 171 167 145 163 164 164 158 167 160 136 107 99 97 105 113 113 117 127 117 94 83 80 67 82 93 94 136 278 174 109 119 64
177 215 185 178 181 190 162 152 167 167 168 172 168 164 155 129 117 109 95 101 116 123 100 100 84 79 80 83 73 81 98 89 143 230 294 200 142 210
211 215 202 177 160 146 148 145 150 156 162 164 162 157 130 123 110 119 105 109 108 111 108 101 91 95 88 69 65 87 84 81 74 215 206 258 179 166
228 234 229 207 172 164 161 151 142 152 143 158 153 137 128 120 127 111 105 114 118 110 97 93 94 91 76 64 57 81 82 63 105 172 228 241 340 99
212 203 190 179 182 160 161 174 170 164 143 128 129 121 127 122 120 107 96 99 96 94 88 77 82 79 69 55 63 72 70 59 97 143 144 203 242 195
191 177 207 131 129 161 173 166 158 163 149 135 131 134 134 134 117 101 104 100 102 85 94 86 83 74 59 46 54 68 63 74 85 123 145 148 133 199
157 147 142 127 89 122 154 148 146 140 134 132 128 125 116 97 92 118 101 118 89 84 79 81 82 68 67 55 47 55 68 77 84 95 153 183 207 203
164 154 118 131 107 106 134 137 123 102 115 132 141 151 159 144 108 115 110 97 92 84 68 80 83 69 87 58 42 52 63 97 94 101 113 144 163 167
185 178 172 133 126 106 108 117 103 113 98 122 135 147 158 164 153 144 118 89 84 83 68 65 77 70 79 59 39 48 58 72 81 99 121 105 111 115
192 180 178 138 131 117 122 91 89 113 132 133 132 125 131 130 122 125 117 100 96 75 72 75 75 71 70 65 48 53 65 65 63 58 60 79 94 92
198 172 157 151 137 127 106 76 90 114 122 130 119 127 133 125 133 108 91 85 84 69 67 71 75 69 74 66 75 81 92 57 45 42 45 60 66 70
186 204 179 162 168 158 142 105 109 98 109 126 138 151 143 133 104 95 98 89 88 82 75 62 67 62 63 60 84 92 63 107 80 59 57 57 50 52
253 274 273 256 221 174 150 122 106 104 118 139 158 154 127 117 106 96 103 101 95 99 92 77 61 50 50 71 99 95 101 106 79 69 78 71 43 34
300 274 251 227 199 164 153 142 118 81 121 153 144 128 114 108 105 99 98 105 103 108 109 86 84 87 90 87 71 139 124 114 109 89 80 79 69 54
243 236 225 205 179 159 181 161 119 77 127 137 132 117 113 98 104 103 93 96 96 105 103 98 99 99 129 129 98 78 117 121 112 105 92 93 81 82
231 231 211 211 222 203 188 136 107 110 139 135 117 109 118 128 127 108 106 105 99 112 100 85 83 100 118 105 107 115 81 110 110 107 90 70 70 59
205 216 213 198 174 173 130 119 98 125 142 139 114 120 124 136 119 111 105 81 94 106 99 101 111 61 97 82 95 120 113 62 62 81 82 76 69 64
224 202 192 176 141 135 103 110 105 110 128 120 129 129 128 124 119 114 113 113 109 112 112 117 110 105 97 65 66 86 123 124 96 58 65 75 90 97
172 161 168 141 130 128 133 134 129 118 118 128 125 123 148 141 118 117 118 117 116 101 99 110 106 107 90 85 69 84 98 125 126 112 115 60 52 59

GFSNE_con_3kmhel_123.txt.gz
Helicity
158 170 171 173 193 179 228 327 233 324 134 167 159 164 165 188 144 150 155 107 89 92 101 107 115 130 122 94 84 61 43 9 21 21 26 18 5 -9
163 187 203 206 218 270 279 283 204 155 114 150 162 171 167 178 168 157 107 104 79 92 111 90 98 113 89 92 76 63 44 29 39 49 56 45 -6 -6
181 183 190 236 298 321 273 203 154 131 145 165 172 159 166 155 137 116 105 75 77 94 117 108 120 122 103 95 81 63 43 54 50 92 104 85 10 5
213 203 191 263 176 197 228 209 150 161 168 157 165 153 151 136 129 104 83 81 79 93 122 145 156 120 108 100 78 66 86 66 62 131 156 81 19 25
155 172 147 182 192 208 158 156 153 162 169 161 148 156 152 148 123 112 86 80 85 91 104 124 117 112 89 90 77 85 87 69 93 149 237 115 38 30
197 206 169 140 119 183 167 143 158 172 180 146 162 158 149 149 142 110 85 93 91 113 113 109 93 87 97 88 77 87 78 78 127 175 249 168 97 151
221 204 187 259 222 172 188 155 168 175 187 182 172 171 153 143 114 100 97 95 101 111 114 118 117 111 95 79 64 81 69 76 86 158 165 123 80 136
190 212 211 206 158 152 156 162 161 157 155 165 161 141 128 120 125 115 114 119 110 115 125 122 115 103 88 73 64 64 62 70 83 104 240 239 111 69
221 236 249 240 238 220 198 212 155 149 134 141 143 124 128 117 140 138 113 115 108 111 116 105 113 97 79 57 61 58 51 70 98 115 151 186 209 143
205 217 210 194 150 186 244 196 170 153 168 147 125 121 130 137 146 138 133 125 118 97 104 99 103 85 67 56 44 54 59 60 75 98 96 169 201 229
191 190 177 188 171 226 209 150 160 178 151 137 141 139 140 142 154 171 140 133 102 100 98 101 94 73 67 54 40 53 63 47 71 112 153 132 107 185
191 192 146 156 109 88 166 163 147 132 143 157 172 185 175 150 111 129 138 133 122 102 92 101 88 68 85 58 52 45 53 63 86 78 111 145 188 188
181 170 162 120 97 105 157 156 120 144 118 144 152 156 167 169 173 165 154 142 136 115 88 87 76 68 72 54 44 43 49 52 54 82 109 113 118 127
203 194 165 126 136 123 145 121 129 158 180 173 155 138 143 146 151 162 160 151 144 132 115 101 85 69 71 61 55 46 38 39 51 57 69 84 99 98
183 169 152 136 137 145 150 151 159 199 186 157 127 126 137 149 172 156 145 138 128 109 98 88 76 78 77 58 57 61 69 44 35 43 43 44 46 61
156 170 182 187 181 186 159 172 187 183 158 137 128 153 174 158 149 141 125 119 118 103 90 81 71 70 72 52 61 60 66 101 61 44 43 43 40 40
220 257 272 268 257 255 223 201 208 165 159 147 148 160 151 149 145 131 132 119 108 105 95 84 67 55 50 66 66 56 67 75 65 68 75 84 58 40
296 297 273 264 251 249 240 237 206 163 144 149 142 153 153 152 155 126 116 100 99 92 91 97 97 95 79 67 52 71 59 68 77 80 95 114 104 71
276 291 266 269 268 267 256 243 188 154 184 159 143 144 160 151 142 122 104 104 93 90 90 106 108 110 117 115 119 54 97 93 107 107 98 102 111 84
262 254 254 246 245 218 211 206 198 207 194 163 145 159 159 154 159 125 114 106 97 95 100 97 89 92 95 90 116 112 102 122 110 84 81 71 61 62
189 207 201 228 247 205 198 199 194 194 179 170 150 161 155 147 129 134 126 103 102 109 97 91 80 60 68 77 102 121 121 88 94 90 68 62 69 97
145 185 224 230 207 188 198 191 185 184 172 144 131 150 141 132 144 125 120 115 108 112 109 116 109 121 91 84 90 110 126 121 106 61 56 59 69 77
157 170 193 193 186 184 193 194 175 151 138 133 127 139 150 139 146 138 135 129 130 112 121 129 114 113 93 81 76 85 99 122 108 108 97 52 33 33

GFSNE_con_3kmhel_126.txt.gz
Helicity
178 188 192 185 169 157 198 254 260 231 223 255 267 256 207 206 180 150 129 118 109 98 94 98 100 110 106 98 85 77 59 38 18 24 43 40 19 -19
214 217 223 219 173 223 214 233 280 267 262 246 275 157 162 193 171 135 136 117 119 99 82 91 104 115 107 99 91 66 55 42 46 52 75 61 56 0
186 188 168 115 156 178 207 248 286 401 325 286 218 191 159 149 150 142 112 126 110 83 90 104 99 110 100 103 82 66 58 67 73 81 101 95 44 6
197 183 207 190 121 172 206 265 351 333 300 235 198 169 153 147 135 136 121 104 89 75 73 84 115 117 110 85 81 69 76 99 104 118 137 116 44 16
170 139 163 181 174 200 205 242 261 315 231 176 155 171 166 167 177 149 128 100 74 57 67 74 99 107 89 91 85 64 90 114 136 139 181 198 47 52
111 132 120 152 163 242 223 178 225 205 167 152 159 189 191 152 170 147 118 107 89 94 80 78 92 78 94 87 76 74 88 140 137 162 147 159 107 99
112 146 116 157 162 221 241 239 201 167 170 174 169 176 167 172 156 142 133 112 88 83 98 114 119 114 109 100 78 75 84 139 144 178 107 41 45 83
117 117 214 193 188 172 246 340 162 200 137 175 188 145 139 151 157 137 126 112 99 102 124 117 120 100 93 88 83 88 95 130 148 177 186 137 75 62
198 163 174 172 189 208 203 265 171 178 152 171 168 136 134 129 161 152 125 113 110 126 122 107 113 100 97 85 79 84 71 112 137 164 175 179 79 53
97 111 129 132 164 222 220 262 261 210 231 194 141 95 124 134 133 113 111 126 137 121 115 106 115 89 84 81 82 72 77 93 131 169 121 201 236 214
100 132 147 156 142 167 225 228 228 228 176 145 147 139 136 120 136 177 156 156 136 119 105 99 94 81 86 77 61 71 88 102 101 134 81 63 180 202
116 120 106 98 119 163 200 208 163 191 125 172 187 180 155 113 102 123 147 164 161 126 97 100 94 81 91 67 68 67 70 93 92 111 136 165 162 161
173 166 159 127 118 136 179 154 146 104 90 158 165 153 162 172 166 149 142 149 144 134 107 107 92 85 83 71 59 57 60 65 71 75 109 139 155 158
189 203 206 161 144 135 151 114 84 147 212 188 186 179 174 166 166 179 181 170 166 147 144 121 103 80 77 76 68 57 49 49 56 48 64 94 128 133
181 181 185 197 179 192 167 154 188 238 245 229 185 183 163 166 193 192 181 170 157 140 127 108 94 85 74 72 61 67 70 44 46 49 50 55 59 65
159 168 211 217 195 219 186 183 235 204 221 195 185 195 211 184 175 168 153 144 139 116 108 88 74 79 87 68 70 65 66 70 53 38 37 44 38 38
198 218 234 273 276 262 255 236 249 226 165 248 204 203 194 167 162 162 162 155 142 117 107 85 76 74 69 71 75 60 54 53 48 49 57 49 29 27
219 260 255 263 262 272 269 265 275 237 235 203 178 180 179 170 172 163 161 142 129 104 100 95 101 102 94 72 50 71 60 56 53 48 57 79 79 71
222 224 237 262 253 272 292 311 288 262 250 246 205 171 172 177 173 156 141 130 107 102 91 104 111 119 128 100 84 38 58 53 65 74 68 71 80 92
157 199 209 244 271 280 293 281 265 282 247 252 186 205 176 198 199 160 137 120 112 107 100 101 103 110 107 83 94 81 49 86 94 105 101 73 69 45
117 155 223 226 224 262 263 267 240 243 223 235 207 212 198 214 175 165 135 103 108 110 106 100 82 77 100 109 117 114 98 62 79 96 88 81 63 76
101 111 150 191 237 225 236 228 209 230 227 226 210 202 192 169 169 156 137 124 108 110 123 120 130 134 113 102 94 103 109 93 74 51 51 62 72 78
88 104 126 148 199 217 221 209 197 217 201 216 223 200 193 154 137 147 134 128 121 125 138 149 146 136 106 97 104 107 96 94 95 100 94 60 44 46

GFSNE_con_3kmhel_129.txt.gz
Helicity
135 137 184 217 241 219 197 221 100 152 131 171 254 265 369 385 380 155 125 139 125 103 99 85 88 105 101 96 84 78 59 43 19 24 6 -3 -4 -3
148 166 198 202 226 201 226 203 231 201 183 229 258 353 358 322 209 137 140 140 116 100 97 98 75 74 89 98 98 79 56 46 36 30 16 7 5 -1
148 144 168 188 209 191 224 194 171 194 231 299 385 383 278 283 203 167 156 124 107 106 89 83 83 69 85 82 76 68 64 56 46 51 43 59 65 10
94 126 161 183 220 198 185 169 134 228 261 266 460 391 371 267 161 133 124 129 122 90 72 64 80 99 83 75 69 62 59 70 71 71 98 151 116 36
119 134 171 168 146 150 154 231 197 298 259 396 414 362 273 227 165 150 142 119 107 87 78 80 79 66 75 73 50 67 67 100 81 89 159 169 130 96
193 184 151 142 99 112 211 198 193 217 274 339 349 272 210 187 158 183 151 126 121 119 107 79 61 75 69 64 67 74 85 103 98 119 137 116 106 117
175 135 162 150 189 156 203 200 244 250 331 257 278 233 185 177 139 147 140 152 128 103 96 84 95 86 76 80 77 77 95 122 117 140 126 103 65 62
123 154 202 184 72 93 97 172 249 341 398 346 217 153 151 141 146 159 172 149 96 104 108 112 98 86 96 99 91 78 100 129 152 165 183 136 81 94
183 140 102 125 161 190 197 243 263 299 281 252 275 161 160 94 165 137 141 138 129 124 113 108 103 110 111 102 87 85 95 122 158 173 180 197 74 56
72 82 86 82 71 123 150 207 241 268 220 225 182 234 172 157 140 129 128 148 165 132 111 108 118 115 97 92 93 91 83 113 144 156 201 226 154 101
67 86 113 115 138 131 137 122 159 212 237 252 244 141 106 101 150 199 175 169 148 112 101 110 112 110 98 86 83 97 105 138 140 177 181 160 218 184
102 97 92 127 137 178 200 194 165 175 191 203 196 155 116 117 118 129 159 142 147 140 115 114 105 99 98 91 84 88 86 90 115 156 164 136 122 192
126 129 123 95 101 124 153 185 184 216 182 299 191 122 140 148 153 131 121 141 151 164 111 124 115 117 112 99 78 76 80 79 87 103 159 169 177 204
147 147 150 127 135 157 172 174 191 222 272 203 164 111 118 140 154 167 171 173 188 157 146 134 128 110 107 91 80 73 68 78 70 73 98 135 192 193
181 167 143 144 123 154 174 180 225 313 310 314 247 213 156 150 190 221 220 213 198 182 166 146 126 113 97 84 92 81 79 61 58 51 66 93 109 127
165 178 162 157 186 215 233 228 334 337 293 262 285 234 215 212 193 191 184 153 148 144 151 134 111 101 99 79 72 73 68 74 58 47 58 64 62 59
148 200 209 211 213 254 298 270 291 299 261 317 199 255 204 205 190 166 186 175 146 131 120 122 125 101 85 82 82 56 61 61 65 80 61 55 40 33
152 190 184 197 211 224 241 270 294 243 270 294 290 276 270 246 208 172 176 139 147 126 121 130 124 119 99 63 41 77 69 60 70 68 63 81 80 65
137 150 156 163 172 190 210 220 261 280 309 292 275 261 281 203 196 188 155 158 158 116 122 116 108 117 104 86 89 25 62 69 70 71 60 79 99 94
108 111 125 156 151 143 164 191 233 289 298 289 306 276 281 268 260 213 163 141 128 118 118 115 104 87 93 97 102 83 50 88 84 91 100 97 81 72
76 71 75 75 126 175 173 163 201 270 277 288 302 303 300 301 238 194 178 136 132 115 104 89 81 88 117 122 124 119 99 65 71 91 116 138 123 92
63 57 48 67 95 138 195 243 234 250 284 265 289 322 321 304 257 195 175 166 131 107 123 131 132 134 123 104 114 120 115 98 74 72 89 118 118 97
68 43 34 52 64 134 167 178 201 202 257 263 283 320 307 283 256 213 191 181 156 127 132 140 143 129 112 116 119 126 124 118 107 108 106 72 73 79

GFSNE_con_3kmhel_132.txt.gz
Helicity
165 103 131 118 143 150 183 272 263 216 231 162 132 168 247 261 284 323 439 348 181 140 109 93 91 82 87 98 83 65 57 49 44 28 20 20 0 -18
154 97 123 118 105 150 214 250 216 178 170 238 173 214 195 290 290 367 458 282 184 145 108 91 82 59 71 70 79 76 65 58 55 41 42 35 19 0
181 176 112 79 145 189 167 208 215 222 252 192 242 233 183 281 426 477 333 217 198 141 103 92 86 64 63 64 67 79 68 64 60 51 50 54 59 31
172 141 122 74 122 159 138 186 208 235 193 174 228 246 257 379 420 420 242 280 170 114 96 90 77 60 68 55 74 74 70 68 64 44 70 69 94 64
172 158 135 11 89 165 152 195 190 136 192 192 258 355 398 436 467 363 338 244 148 115 91 81 82 61 53 81 88 73 64 61 54 66 74 90 122 100
155 158 135 65 114 140 120 132 157 204 226 292 307 412 353 385 491 468 242 184 115 142 108 65 68 83 83 86 76 68 55 59 73 88 88 91 89 111
172 199 130 140 152 167 183 223 269 232 228 274 322 394 353 355 328 287 261 182 148 90 77 83 89 95 97 79 70 58 58 66 82 117 108 97 70 98
113 135 111 110 90 117 149 169 257 299 266 300 312 422 403 480 350 377 358 203 141 76 92 115 107 105 99 89 102 72 61 78 113 133 134 124 88 77
59 51 56 118 154 220 271 147 209 214 227 272 305 399 486 428 317 266 258 213 168 98 95 111 127 111 110 103 90 70 73 86 132 150 171 148 92 76
90 91 85 91 107 137 199 185 197 275 210 167 172 217 211 207 278 276 304 239 207 98 128 117 127 114 106 96 91 89 84 92 139 170 178 201 85 91
82 85 97 111 103 98 142 193 136 164 176 185 131 186 220 139 256 378 230 243 289 188 124 131 123 135 115 99 87 84 83 106 145 174 190 205 160 112
90 98 108 119 126 112 154 167 186 166 182 294 283 213 177 135 144 171 152 179 215 145 112 142 143 145 107 113 101 82 78 97 131 184 198 166 210 138
133 132 133 128 124 134 158 198 195 218 195 218 269 283 266 228 158 144 131 146 210 144 91 173 137 133 138 125 103 92 90 97 109 135 196 193 156 199
113 133 154 160 141 136 159 163 191 230 290 272 262 231 270 266 182 185 161 145 134 105 101 159 128 159 157 139 119 98 89 92 97 112 160 176 164 172
125 124 129 131 136 142 130 148 162 281 313 313 283 268 287 309 231 212 210 219 200 173 180 178 153 167 148 131 113 109 105 84 92 110 118 148 161 181
154 156 149 142 135 137 154 167 235 303 283 280 331 368 375 431 376 282 227 191 203 174 190 183 170 160 140 118 116 105 90 97 93 92 106 117 124 139
153 149 162 176 171 182 191 199 235 254 254 288 295 330 286 415 288 339 248 229 209 171 150 158 151 138 123 110 105 94 90 86 81 88 89 83 89 88
186 203 195 176 180 165 175 187 220 219 232 251 276 300 302 299 327 336 277 245 217 190 159 169 157 144 116 95 84 100 96 91 89 87 93 93 102 65
205 193 191 165 151 158 144 134 139 194 232 257 287 271 293 317 303 231 249 244 202 172 173 153 157 139 117 98 105 64 109 104 99 93 93 112 113 85
176 173 157 140 121 107 98 85 102 141 203 226 239 298 286 276 277 251 320 231 194 184 151 145 135 91 108 113 112 103 68 108 96 100 104 102 113 107
133 126 113 105 91 68 77 80 87 120 182 223 244 290 309 310 316 314 276 202 171 180 153 149 109 84 123 128 128 134 116 100 133 119 112 130 140 117
102 94 94 100 94 82 73 57 70 111 185 198 217 258 288 289 310 309 266 219 202 185 169 209 156 124 127 128 135 145 140 124 103 128 146 158 157 129
95 80 76 86 84 75 65 58 43 67 143 167 187 237 283 292 291 301 266 232 241 222 232 220 183 144 124 130 132 135 138 134 131 129 129 109 116 141